Latitude: N 50° 09' 49" Longitude: W 05° 11' 53" Elevation: 168m ASL

There are 12 visitors online

Adverts

<- Previous Day | Today | Next Day ->

All Data for 16 April 2018

Time
A - D
Temp
A - D
Dew Point
A - D
Humidity
A - D
Pressure
A - D
Wind
A - D
Wind Dir Gust
A - D
Rain Rate
A - D
Rain Total
00:02 8.3 8.2 99 1007.7 9.2 SE 13.6 0.0 0.0
00:04 8.3 8.2 99 1007.7 9.2 SE 13.6 0.0 0.0
00:05 8.3 8.2 99 1007.8 9.2 SE 13.0 0.0 0.0
00:07 8.4 8.3 99 1007.8 12.1 WSW 12.1 0.0 0.0
00:08 8.4 8.3 99 1007.9 11.4 WSW 12.1 0.0 0.0
00:09 8.4 8.3 99 1007.9 9.8 NNW 12.1 0.0 0.0
00:10 8.4 8.3 99 1007.8 9.2 S 12.1 0.0 0.0
00:11 8.4 8.3 99 1007.8 8.3 S 12.1 0.0 0.0
00:12 8.4 8.3 99 1007.9 9.8 NW 12.1 0.0 0.0
00:13 8.4 8.3 99 1007.9 9.8 NW 12.1 0.0 0.0
00:14 8.4 8.3 99 1007.9 9.2 WSW 12.1 0.0 0.0
00:15 8.4 8.3 99 1007.8 9.2 WSW 12.1 0.0 0.0
00:16 8.4 8.3 99 1007.8 8.3 WSW 12.1 0.0 0.0
00:17 8.4 8.3 99 1007.8 8.3 WSW 11.4 0.0 0.0
00:18 8.4 8.3 99 1007.8 8.3 SE 11.4 0.0 0.0
00:19 8.4 8.3 99 1007.8 10.7 S 11.4 0.0 0.0
00:20 8.4 8.3 99 1007.8 10.7 WSW 11.4 0.0 0.0
00:21 8.4 8.3 99 1007.8 9.2 S 11.4 0.0 0.0
00:23 8.4 8.3 99 1007.7 10.7 S 11.4 0.0 0.0
00:25 8.4 8.3 99 1007.8 7.6 S 10.7 0.0 0.0
00:26 8.4 8.3 99 1007.8 9.2 S 10.7 0.0 0.0
00:27 8.4 8.3 99 1007.8 12.1 S 12.1 0.0 0.0
00:28 8.4 8.3 99 1007.7 9.2 S 12.1 0.0 0.0
00:29 8.4 8.3 99 1007.8 9.8 S 12.1 0.0 0.0
00:30 8.4 8.3 99 1007.8 9.2 S 12.1 0.0 0.0
00:31 8.5 8.4 99 1007.8 6.9 S 12.1 0.0 0.0
00:32 8.5 8.4 99 1007.8 10.7 S 12.1 0.0 0.0
00:33 8.4 8.3 99 1007.9 9.2 S 12.1 0.0 0.0
00:34 8.5 8.4 99 1007.8 9.8 WNW 12.1 0.0 0.0
00:35 8.5 8.4 99 1007.7 6.9 NNW 12.1 0.0 0.0
00:36 8.5 8.4 99 1007.7 9.2 S 12.1 0.0 0.0
00:37 8.4 8.3 99 1007.9 7.6 WSW 10.7 0.0 0.0
00:38 8.4 8.3 99 1007.7 9.8 S 12.1 0.0 0.0
00:39 8.5 8.4 99 1007.8 10.7 S 12.1 0.0 0.0
00:40 8.5 8.4 99 1007.9 9.2 WSW 12.1 0.0 0.0
00:41 8.5 8.4 99 1007.9 13.0 WNW 13.0 0.0 0.0
00:42 8.5 8.4 99 1007.8 12.1 N 13.0 0.0 0.0
00:43 8.5 8.4 99 1007.9 9.2 S 13.0 0.0 0.0
00:44 8.5 8.4 99 1008.0 9.2 WSW 13.0 0.0 0.0
00:45 8.5 8.4 99 1007.9 11.4 S 13.0 0.0 0.0
00:46 8.5 8.4 99 1007.8 10.7 NW 13.0 0.0 0.0
00:47 8.5 8.4 99 1008.0 9.2 S 13.0 0.0 0.0
00:49 8.5 8.4 99 1007.8 9.2 S 13.0 0.0 0.0
00:50 8.5 8.4 99 1008.0 11.4 S 13.0 0.0 0.0
00:51 8.5 8.4 99 1007.9 8.3 S 13.0 0.0 0.0
00:52 8.5 8.4 99 1007.9 8.3 S 12.1 0.0 0.0
00:53 8.4 8.3 99 1007.9 14.5 WSW 14.5 0.0 0.0
00:54 8.5 8.4 99 1008.0 7.6 N 14.5 0.0 0.0
00:55 8.4 8.3 99 1008.1 9.8 SE 14.5 0.0 0.0
00:56 8.4 8.3 99 1008.0 12.1 S 14.5 0.0 0.0
00:57 8.4 8.3 99 1008.0 10.7 NNW 14.5 0.0 0.0
00:58 8.4 8.3 99 1008.0 9.2 S 14.5 0.0 0.0
00:59 8.3 8.2 99 1007.9 9.8 WSW 14.5 0.0 0.0
01:00 8.4 8.3 99 1008.1 7.6 S 14.5 0.0 0.0
01:01 8.4 8.3 99 1008.0 7.6 S 14.5 0.0 0.0
01:02 8.4 8.3 99 1008.1 7.6 S 14.5 0.0 0.0
01:03 8.4 8.3 99 1008.0 7.6 S 12.1 0.0 0.0
01:04 8.4 8.3 99 1008.1 7.6 S 12.1 0.0 0.0
01:05 8.4 8.3 99 1008.2 7.6 S 12.1 0.0 0.0
01:06 8.2 8.1 99 1008.2 6.9 S 12.1 0.0 0.0
01:07 8.2 8.1 99 1008.1 8.3 WSW 9.8 0.0 0.0
01:08 8.2 8.1 99 1008.0 8.3 S 9.8 0.0 0.0
01:09 8.2 8.1 99 1008.1 9.8 S 9.8 0.0 0.0
01:10 8.1 8.0 99 1008.2 9.2 S 9.8 0.0 0.0
01:11 8.1 8.0 99 1008.1 9.2 S 9.8 0.0 0.0
01:12 8.1 8.0 99 1008.1 8.3 S 9.8 0.0 0.0
01:13 8.1 8.0 99 1008.1 8.3 WSW 9.8 0.0 0.0
01:14 8.1 8.0 99 1008.1 7.6 WSW 9.8 0.0 0.0
01:15 8.1 8.0 99 1008.1 9.2 S 9.8 0.0 0.0
01:17 8.0 7.9 99 1008.1 7.6 S 9.8 0.0 0.0
01:18 8.0 7.9 99 1008.3 6.0 S 9.8 0.0 0.0
01:19 8.0 7.9 99 1008.3 9.2 S 9.8 0.0 0.0
01:20 8.0 7.9 99 1008.2 8.3 S 9.2 0.0 0.0
01:21 8.0 7.9 99 1008.1 7.6 S 9.2 0.0 0.0
01:22 8.0 7.9 99 1008.3 6.0 SE 9.2 0.0 0.0
01:23 7.9 7.8 99 1008.2 6.9 S 9.2 0.0 0.0
01:24 7.9 7.8 99 1008.2 8.3 S 9.2 0.0 0.0
01:25 7.9 7.8 99 1008.3 5.4 S 9.2 0.0 0.0
01:26 7.9 7.8 99 1008.3 6.9 S 9.2 0.0 0.0
01:27 7.8 7.7 99 1008.2 6.0 S 9.2 0.0 0.0
01:28 7.8 7.7 99 1008.3 9.2 S 9.2 0.0 0.0
01:29 7.8 7.7 99 1008.3 6.9 S 9.2 0.0 0.0
01:30 7.8 7.7 99 1008.3 6.0 WSW 9.2 0.0 0.0
01:31 7.8 7.7 99 1008.3 6.9 S 9.2 0.0 0.0
01:32 7.7 7.6 99 1008.3 7.6 S 9.2 0.0 0.0
01:33 7.7 7.6 99 1008.3 6.9 S 9.2 0.0 0.0
01:34 7.7 7.6 99 1008.2 6.9 S 9.2 0.0 0.0
01:35 7.7 7.6 99 1008.4 8.3 WSW 9.2 0.0 0.0
01:36 7.7 7.6 99 1008.3 9.2 S 9.2 0.0 0.0
01:37 7.7 7.6 99 1008.4 6.9 S 9.2 0.0 0.0
01:38 7.7 7.6 99 1008.4 9.8 S 9.8 0.0 0.0
01:40 7.7 7.6 99 1008.4 6.0 S 9.8 0.0 0.0
01:41 7.7 7.6 99 1008.6 7.6 NNE 9.8 0.0 0.0
01:42 7.6 7.5 99 1008.5 5.4 S 9.8 0.0 0.0
01:43 7.6 7.5 99 1008.3 6.0 N 9.8 0.0 0.0
01:44 7.6 7.5 99 1008.6 7.6 S 9.8 0.0 0.0
01:45 7.6 7.5 99 1008.3 9.2 S 9.8 0.0 0.0
01:46 7.6 7.5 99 1008.4 6.9 S 9.8 0.0 0.0
01:47 7.6 7.5 99 1008.5 6.0 S 9.8 0.0 0.0
01:48 7.5 7.4 99 1008.5 7.6 S 9.8 0.0 0.0
01:49 7.5 7.4 99 1008.4 10.7 S 10.7 0.0 0.0
01:50 7.6 7.5 99 1008.6 6.9 S 10.7 0.0 0.0
01:51 7.6 7.5 99 1008.5 10.7 WSW 10.7 0.0 0.0
01:52 7.5 7.4 99 1008.5 9.8 WSW 10.7 0.0 0.0
01:53 7.6 7.5 99 1008.5 6.0 S 10.7 0.0 0.0
01:54 7.7 7.6 99 1008.5 9.2 S 10.7 0.0 0.0
01:55 7.7 7.6 99 1008.6 6.0 S 10.7 0.0 0.0
01:56 7.7 7.6 99 1008.5 7.6 S 10.7 0.0 0.0
01:57 7.7 7.6 99 1008.5 8.3 S 10.7 0.0 0.0
01:58 7.7 7.6 99 1008.6 6.9 S 10.7 0.0 0.0
01:59 7.7 7.6 99 1008.4 9.8 S 10.7 0.0 0.0
02:00 7.7 7.6 99 1008.7 9.8 S 10.7 0.0 0.0
02:01 7.7 7.6 99 1008.7 9.8 S 10.7 0.0 0.0
02:03 7.8 7.7 99 1008.6 6.0 WSW 9.8 0.0 0.0
02:04 7.8 7.7 99 1008.5 6.0 WSW 9.8 0.0 0.0
02:05 7.8 7.7 99 1008.6 10.7 S 10.7 0.0 0.0
02:06 7.8 7.7 99 1008.7 8.3 S 10.7 0.0 0.0
02:07 7.8 7.7 99 1008.5 6.9 S 10.7 0.0 0.0
02:08 7.8 7.7 99 1008.6 10.7 WSW 10.7 0.0 0.0
02:09 7.8 7.7 99 1008.5 9.2 S 10.7 0.0 0.0
02:10 7.8 7.7 99 1008.7 7.6 S 10.7 0.0 0.0
02:11 7.8 7.7 99 1008.4 6.9 S 10.7 0.0 0.0
02:12 7.8 7.7 99 1008.5 9.2 S 10.7 0.0 0.0
02:14 7.8 7.7 99 1008.5 9.2 S 10.7 0.0 0.0
02:15 7.8 7.7 99 1008.6 9.8 S 10.7 0.0 0.0
02:16 7.8 7.7 99 1008.6 11.4 W 13.0 0.0 0.0
02:17 7.8 7.7 99 1008.5 8.3 S 13.0 0.0 0.0
02:18 7.9 7.8 99 1008.5 6.9 S 13.0 0.0 0.0
02:19 7.8 7.7 99 1008.5 9.2 S 13.0 0.0 0.0
02:20 7.9 7.8 99 1008.5 7.6 S 13.0 0.0 0.0
02:21 7.8 7.7 99 1008.6 11.4 S 13.0 0.0 0.0
02:22 7.9 7.8 99 1008.5 9.8 S 13.0 0.0 0.0
02:23 7.8 7.7 99 1008.4 6.9 S 13.0 0.0 0.0
02:24 7.8 7.7 99 1008.4 7.6 S 13.0 0.0 0.0
02:25 7.8 7.7 99 1008.3 6.9 S 13.0 0.0 0.0
02:26 7.8 7.7 99 1008.3 10.7 WSW 11.4 0.0 0.0
02:27 7.7 7.6 99 1008.3 5.4 S 11.4 0.0 0.0
02:28 7.8 7.7 99 1008.4 5.4 S 11.4 0.0 0.0
02:29 7.8 7.7 99 1008.4 6.9 S 11.4 0.0 0.0
02:30 7.8 7.7 99 1008.5 6.9 S 11.4 0.0 0.0
02:31 7.8 7.7 99 1008.4 6.0 S 10.7 0.0 0.0
02:32 7.8 7.7 99 1008.5 9.2 S 10.7 0.0 0.0
02:33 7.7 7.6 99 1008.4 8.3 WSW 10.7 0.0 0.0
02:34 7.7 7.6 99 1008.4 6.0 S 10.7 0.0 0.0
02:35 7.7 7.6 99 1008.5 9.2 SE 10.7 0.0 0.0
02:37 7.7 7.6 99 1008.4 9.2 S 9.2 0.0 0.0
02:38 7.7 7.6 99 1008.4 9.2 S 9.2 0.0 0.0
02:39 7.7 7.6 99 1008.5 9.2 W 9.2 0.0 0.0
02:40 7.7 7.6 99 1008.7 8.3 S 9.2 0.0 0.0
02:41 7.7 7.6 99 1008.6 11.4 S 11.4 0.0 0.0
02:42 7.7 7.6 99 1008.6 10.7 S 11.4 0.0 0.0
02:43 7.7 7.6 99 1008.4 10.7 S 11.4 0.0 0.0
02:44 7.7 7.6 99 1008.7 6.9 WSW 11.4 0.0 0.0
02:45 7.7 7.6 99 1008.5 7.6 S 11.4 0.0 0.0
02:46 7.7 7.6 99 1008.5 9.2 S 11.4 0.0 0.0
02:47 7.7 7.6 99 1008.7 9.8 S 11.4 0.0 0.0
02:48 7.7 7.6 99 1008.7 7.6 S 11.4 0.0 0.0
02:49 7.7 7.6 99 1008.6 13.0 W 13.0 0.0 0.0
02:50 7.7 7.6 99 1008.7 11.4 S 13.0 0.0 0.0
02:51 7.7 7.6 99 1008.7 9.2 S 13.0 0.0 0.0
02:52 7.7 7.6 99 1008.7 7.6 S 13.0 0.0 0.0
02:53 7.7 7.6 99 1008.7 8.3 S 13.0 0.0 0.0
02:54 7.7 7.6 99 1008.5 9.2 S 13.0 0.0 0.0
02:55 7.7 7.6 99 1008.7 9.2 S 13.0 0.0 0.0
02:56 7.7 7.6 99 1008.8 9.2 S 13.0 0.0 0.0
02:58 7.7 7.6 99 1008.6 7.6 WSW 13.0 0.0 0.0
02:59 7.7 7.6 99 1008.7 10.7 S 13.0 0.0 0.0
03:00 7.7 7.6 99 1008.7 5.4 S 13.0 0.0 0.0
03:01 7.7 7.6 99 1008.7 5.4 S 10.7 0.0 0.0
03:02 7.7 7.6 99 1008.7 5.4 S 10.7 0.0 0.0
03:03 7.7 7.6 99 1008.8 5.4 S 10.7 0.0 0.0
03:04 7.7 7.6 99 1008.8 5.4 S 10.7 0.0 0.0
03:05 7.7 7.6 99 1008.8 5.4 S 10.7 0.0 0.0
03:06 7.7 7.6 99 1008.8 6.9 S 10.7 0.0 0.0
03:07 7.7 7.6 99 1008.8 6.9 S 10.7 0.0 0.0
03:08 7.7 7.6 99 1008.8 9.2 WSW 10.7 0.0 0.0
03:09 7.7 7.6 99 1008.6 8.3 S 9.2 0.0 0.0
03:10 7.7 7.6 99 1008.7 5.4 S 9.2 0.0 0.0
03:11 7.6 7.5 99 1008.9 6.9 S 9.2 0.0 0.0
03:12 7.6 7.5 99 1008.8 6.9 WSW 9.2 0.0 0.0
03:13 7.6 7.5 99 1008.8 5.4 S 9.2 0.0 0.0
03:14 7.6 7.5 99 1008.9 5.4 S 9.2 0.0 0.0
03:15 7.6 7.5 99 1008.8 5.4 S 9.2 0.0 0.0
03:16 7.5 7.4 99 1008.8 6.0 S 9.2 0.0 0.0
03:18 7.5 7.4 99 1008.8 6.0 S 9.2 0.0 0.0
03:19 7.5 7.4 99 1008.7 8.3 S 8.3 0.0 0.0
03:20 7.4 7.3 99 1008.9 5.4 S 8.3 0.0 0.0
03:21 7.4 7.3 99 1008.9 7.6 S 8.3 0.0 0.0
03:22 7.4 7.3 99 1009.1 7.6 S 8.3 0.0 0.0
03:23 7.4 7.3 99 1008.8 7.6 SE 8.3 0.0 0.0
03:24 7.3 7.2 99 1009.0 6.0 S 9.2 0.0 0.0
03:25 7.3 7.2 99 1009.0 5.4 S 9.2 0.0 0.0
03:26 7.2 7.1 99 1008.9 9.2 S 9.2 0.0 0.0
03:27 7.3 7.2 99 1008.9 6.0 S 9.2 0.0 0.0
03:28 7.2 7.1 99 1008.7 5.4 S 9.2 0.0 0.0
03:29 7.2 7.1 99 1009.0 6.9 S 9.2 0.0 0.0
03:30 7.2 7.1 99 1008.8 6.9 S 9.2 0.0 0.0
03:31 7.1 7.0 99 1008.8 6.9 S 9.2 0.0 0.0
03:32 7.1 7.0 99 1008.8 7.6 S 9.2 0.0 0.0
03:33 7.1 7.0 99 1008.7 6.0 S 9.2 0.0 0.0
03:34 7.1 7.0 99 1008.9 5.4 SE 9.2 0.0 0.0
03:35 7.1 7.0 99 1008.9 6.9 S 9.2 0.0 0.0
03:36 7.0 6.9 99 1008.9 6.0 S 8.3 0.0 0.0
03:37 7.1 7.0 99 1008.8 8.3 S 8.3 0.0 0.0
03:39 7.0 6.9 99 1008.9 6.0 S 8.3 0.0 0.0
03:40 7.1 7.0 99 1008.8 6.0 S 8.3 0.0 0.0
03:41 7.0 6.9 99 1008.8 7.6 S 8.3 0.0 0.0
03:42 7.0 6.9 99 1009.0 4.5 S 8.3 0.0 0.0
03:43 7.0 6.9 99 1008.9 5.4 WSW 8.3 0.0 0.0
03:44 6.9 6.8 99 1009.0 7.6 S 8.3 0.0 0.0
03:45 7.0 6.9 99 1009.0 7.6 WSW 8.3 0.0 0.0
03:46 7.0 6.9 99 1008.9 6.9 S 8.3 0.0 0.0
03:47 7.0 6.9 99 1009.1 4.5 S 8.3 0.0 0.0
03:48 7.0 6.9 99 1008.9 6.0 S 7.6 0.0 0.0
03:49 7.0 6.9 99 1009.1 7.6 S 7.6 0.0 0.0
03:50 7.0 6.9 99 1009.1 7.6 WSW 7.6 0.0 0.0
03:51 7.0 6.9 99 1008.9 6.9 S 7.6 0.0 0.0
03:52 7.0 6.9 99 1009.0 6.0 S 7.6 0.0 0.0
03:54 7.0 6.9 99 1009.1 3.8 S 7.6 0.0 0.0
03:55 7.0 6.9 99 1009.0 6.9 S 7.6 0.0 0.0
03:56 7.0 6.9 99 1009.0 6.9 S 7.6 0.0 0.0
03:57 7.0 6.9 99 1008.8 8.3 S 8.3 0.0 0.0
03:58 7.0 6.9 99 1008.9 6.9 S 8.3 0.0 0.0
03:59 7.0 6.9 99 1008.9 5.4 S 8.3 0.0 0.0
04:00 7.0 6.9 99 1009.0 5.4 S 8.3 0.0 0.0
04:01 7.0 6.9 99 1009.1 5.4 S 8.3 0.0 0.0
04:02 7.0 6.9 99 1008.9 5.4 S 8.3 0.0 0.0
04:03 7.0 6.9 99 1009.0 5.4 S 8.3 0.0 0.0
04:04 7.0 6.9 99 1009.0 5.4 S 8.3 0.0 0.0
04:05 7.1 7.0 99 1009.0 7.6 WSW 8.3 0.0 0.0
04:06 7.1 7.0 99 1008.9 7.6 SE 8.3 0.0 0.0
04:08 7.1 7.0 99 1009.0 8.3 S 8.3 0.0 0.0
04:09 7.2 7.1 99 1009.0 6.9 S 8.3 0.0 0.0
04:10 7.2 7.1 99 1009.0 6.9 S 8.3 0.0 0.0
04:11 7.2 7.1 99 1009.0 6.9 S 8.3 0.0 0.0
04:12 7.3 7.2 99 1009.0 6.9 S 8.3 0.0 0.0
04:14 7.3 7.2 99 1009.1 6.0 S 8.3 0.0 0.0
04:15 7.3 7.2 99 1009.0 5.4 S 8.3 0.0 0.0
04:16 7.3 7.2 99 1009.0 6.0 S 8.3 0.0 0.0
04:17 7.4 7.3 99 1009.1 5.4 S 8.3 0.0 0.0
04:18 7.4 7.3 99 1009.2 6.0 S 8.3 0.0 0.0
04:19 7.4 7.3 99 1009.1 4.5 S 7.6 0.0 0.0
04:20 7.4 7.3 99 1009.1 6.9 S 7.6 0.0 0.0
04:21 7.4 7.3 99 1009.1 6.0 S 7.6 0.0 0.0
04:22 7.4 7.3 99 1009.1 6.0 S 7.6 0.0 0.0
04:23 7.4 7.3 99 1009.0 6.9 S 6.9 0.0 0.0
04:24 7.4 7.3 99 1009.1 6.0 S 6.9 0.0 0.0
04:25 7.4 7.3 99 1009.1 5.4 S 6.9 0.0 0.0
04:26 7.4 7.3 99 1009.1 5.4 S 6.9 0.0 0.0
04:28 7.4 7.3 99 1009.0 6.9 S 6.9 0.0 0.0
04:29 7.4 7.3 99 1009.2 5.4 S 6.9 0.0 0.0
04:30 7.4 7.3 99 1009.2 3.8 S 6.9 0.0 0.0
04:31 7.4 7.3 99 1009.2 4.5 S 6.9 0.0 0.0
04:32 7.4 7.3 99 1009.2 6.9 S 6.9 0.0 0.0
04:33 7.4 7.3 99 1009.2 5.4 N 6.9 0.0 0.0
04:34 7.5 7.4 99 1009.2 6.0 S 6.9 0.0 0.0
04:35 7.4 7.3 99 1009.3 6.0 S 6.9 0.0 0.0
04:36 7.5 7.4 99 1009.2 6.0 S 6.9 0.0 0.0
04:37 7.5 7.4 99 1009.2 4.5 S 6.9 0.0 0.0
04:38 7.5 7.4 99 1009.3 3.8 S 6.9 0.0 0.0
04:39 7.4 7.3 99 1009.1 5.4 S 6.9 0.0 0.0
04:40 7.5 7.4 99 1009.2 6.0 S 6.9 0.0 0.0
04:41 7.5 7.4 99 1009.1 5.4 S 6.9 0.0 0.0
04:42 7.5 7.4 99 1009.2 6.0 S 6.9 0.0 0.0
04:43 7.5 7.4 99 1009.2 5.4 S 6.9 0.0 0.0
04:44 7.5 7.4 99 1009.3 5.4 S 6.9 0.0 0.0
04:46 7.5 7.4 99 1009.4 4.5 SE 6.9 0.0 0.0
04:47 7.4 7.3 99 1009.2 4.5 S 6.9 0.0 0.0
04:48 7.4 7.3 99 1009.2 4.5 S 6.0 0.0 0.0
04:49 7.3 7.2 99 1009.3 3.8 S 6.0 0.0 0.0
04:50 7.4 7.3 99 1009.3 4.5 S 6.0 0.0 0.0
04:51 7.4 7.3 99 1009.4 4.5 S 6.0 0.0 0.0
04:52 7.4 7.3 99 1009.3 6.0 S 6.0 0.0 0.0
04:53 7.3 7.2 99 1009.4 6.9 S 6.9 0.0 0.0
04:54 7.3 7.2 99 1009.3 7.6 S 7.6 0.0 0.0
04:55 7.3 7.2 99 1009.3 5.4 S 7.6 0.0 0.0
04:56 7.3 7.2 99 1009.3 6.9 S 7.6 0.0 0.0
04:57 7.4 7.3 99 1009.2 7.6 S 7.6 0.0 0.0
04:58 7.4 7.3 99 1009.4 5.4 S 7.6 0.0 0.0
04:59 7.4 7.3 99 1009.3 5.4 W 7.6 0.0 0.0
05:00 7.4 7.3 99 1009.2 5.4 W 7.6 0.0 0.0
05:01 7.4 7.3 99 1009.3 5.4 W 7.6 0.0 0.0
05:02 7.4 7.3 99 1009.4 5.4 W 7.6 0.0 0.0
05:03 7.4 7.3 99 1009.3 5.4 W 7.6 0.0 0.0
05:05 7.4 7.3 99 1009.3 5.4 W 7.6 0.0 0.0
05:06 7.5 7.4 99 1009.3 5.4 S 7.6 0.0 0.0
05:07 7.4 7.3 99 1009.3 5.4 S 7.6 0.0 0.0
05:08 7.5 7.4 99 1009.3 5.4 S 7.6 0.0 0.0
05:09 7.4 7.3 99 1009.1 5.4 SE 7.6 0.0 0.0
05:10 7.5 7.4 99 1009.3 5.4 S 7.6 0.0 0.0
05:11 7.5 7.4 99 1009.2 6.0 S 7.6 0.0 0.0
05:12 7.5 7.4 99 1009.2 5.4 S 7.6 0.0 0.0
05:13 7.5 7.4 99 1009.2 5.4 S 7.6 0.0 0.0
05:14 7.5 7.4 99 1009.2 5.4 S 9.2 0.0 0.0
05:15 7.5 7.4 99 1009.3 7.6 S 9.2 0.0 0.0
05:16 7.5 7.4 99 1009.2 6.9 S 9.2 0.0 0.0
05:17 7.5 7.4 99 1009.3 5.4 SE 9.2 0.0 0.0
05:18 7.6 7.5 99 1009.2 8.3 S 9.2 0.0 0.0
05:19 7.6 7.5 99 1009.3 8.3 S 9.2 0.0 0.0
05:20 7.6 7.5 99 1009.2 6.9 S 9.2 0.0 0.0
05:21 7.6 7.5 99 1009.3 10.7 S 10.7 0.0 0.0
05:22 7.6 7.5 99 1009.2 7.6 S 10.7 0.0 0.0
05:24 7.7 7.6 99 1009.2 9.8 S 10.7 0.0 0.0
05:25 7.7 7.6 99 1009.2 8.3 SE 10.7 0.0 0.0
05:26 7.7 7.6 99 1009.3 8.3 S 10.7 0.0 0.0
05:27 7.7 7.6 99 1009.2 9.2 S 10.7 0.0 0.0
05:28 7.8 7.7 99 1009.2 9.8 S 10.7 0.0 0.0
05:29 7.8 7.7 99 1009.2 9.8 S 10.7 0.0 0.0
05:30 7.8 7.7 99 1009.3 8.3 NW 10.7 0.0 0.0
05:31 7.8 7.7 99 1009.3 7.6 NW 9.8 0.0 0.0
05:32 7.8 7.7 99 1009.4 8.3 S 9.8 0.0 0.0
05:33 7.8 7.7 99 1009.2 6.0 S 9.8 0.0 0.0
05:34 7.8 7.7 99 1009.3 9.8 S 9.8 0.0 0.0
05:35 7.8 7.7 99 1009.2 9.2 S 9.8 0.0 0.0
05:37 7.8 7.7 99 1009.3 5.4 S 9.8 0.0 0.0
05:38 7.8 7.7 99 1009.3 7.6 WSW 9.8 0.0 0.0
05:39 7.8 7.7 99 1009.3 5.4 SE 9.8 0.0 0.0
05:40 7.8 7.7 99 1009.4 6.9 WSW 9.8 0.0 0.0
05:41 7.8 7.7 99 1009.4 7.6 WSW 9.8 0.0 0.0
05:42 7.8 7.7 99 1009.3 7.6 S 9.8 0.0 0.0
05:43 7.8 7.7 99 1009.4 6.9 S 9.8 0.0 0.0
05:44 7.8 7.7 99 1009.4 9.8 S 9.8 0.0 0.0
05:45 7.7 7.6 99 1009.4 9.2 S 9.8 0.0 0.0
05:46 7.7 7.6 99 1009.3 7.6 S 9.8 0.0 0.0
05:47 7.7 7.6 99 1009.4 7.6 S 9.8 0.0 0.0
05:48 7.7 7.6 99 1009.5 6.0 S 9.8 0.0 0.0
05:50 7.7 7.6 99 1009.3 6.9 S 9.8 0.0 0.0
05:52 7.6 7.5 99 1009.4 9.2 S 9.8 0.0 0.0
05:53 7.6 7.5 99 1009.5 8.3 SE 9.8 0.0 0.0
05:54 7.7 7.6 99 1009.3 8.3 SE 9.8 0.0 0.0
05:55 7.7 7.6 99 1009.5 7.6 S 9.2 0.0 0.0
05:56 7.6 7.5 99 1009.6 8.3 S 9.2 0.0 0.0
05:57 7.7 7.6 99 1009.4 7.6 S 9.2 0.0 0.0
05:58 7.7 7.6 99 1009.5 7.6 S 9.2 0.0 0.0
05:59 7.7 7.6 99 1009.5 7.6 WSW 9.2 0.0 0.0
06:00 7.7 7.6 99 1009.5 7.6 S 9.2 0.0 0.0
06:01 7.7 7.6 99 1009.4 7.6 S 9.2 0.0 0.0
06:02 7.7 7.6 99 1009.5 7.6 S 9.2 0.0 0.0
06:03 7.7 7.6 99 1009.5 7.6 S 9.2 0.0 0.0
06:04 7.7 7.6 99 1009.5 7.6 S 9.2 0.0 0.0
06:05 7.7 7.6 99 1009.6 7.6 S 9.2 0.0 0.0
06:07 7.7 7.6 99 1009.3 8.3 S 8.3 0.0 0.0
06:08 7.7 7.6 99 1009.5 6.0 S 8.3 0.0 0.0
06:09 7.7 7.6 99 1009.6 6.9 S 8.3 0.0 0.0
06:10 7.7 7.6 99 1009.6 6.0 S 8.3 0.0 0.0
06:12 7.7 7.6 99 1009.7 6.0 S 8.3 0.0 0.0
06:13 7.8 7.7 99 1009.5 6.9 SE 8.3 0.0 0.0
06:15 7.8 7.7 99 1009.5 8.3 S 8.3 0.0 0.0
06:16 7.8 7.7 99 1009.5 7.6 SE 8.3 0.0 0.0
06:17 7.8 7.7 99 1009.5 6.9 SE 8.3 0.0 0.0
06:18 7.8 7.7 99 1009.6 6.9 S 8.3 0.0 0.0
06:19 7.8 7.7 99 1009.5 8.3 SE 8.3 0.0 0.0
06:20 7.8 7.7 99 1009.6 8.3 SE 9.2 0.0 0.0
06:21 7.8 7.7 99 1009.6 6.9 S 9.2 0.0 0.0
06:22 7.8 7.7 99 1009.7 6.9 S 9.2 0.0 0.0
06:23 7.9 7.8 99 1009.7 6.9 SE 9.2 0.0 0.0
06:24 7.9 7.8 99 1009.7 7.6 S 9.2 0.0 0.0
06:25 7.9 7.8 99 1009.8 7.6 S 9.2 0.0 0.0
06:26 7.9 7.8 99 1009.9 8.3 NW 9.2 0.0 0.0
06:27 8.0 7.9 99 1009.7 6.0 S 9.2 0.0 0.0
06:28 8.0 7.9 99 1009.7 8.3 SE 9.2 0.0 0.0
06:29 8.0 7.9 99 1009.7 6.0 S 9.2 0.0 0.0
06:30 8.0 7.9 99 1009.7 7.6 S 9.2 0.0 0.0
06:31 8.0 7.9 99 1009.7 6.0 S 9.2 0.0 0.0
06:32 8.0 7.9 99 1009.7 6.9 S 9.2 0.0 0.0
06:33 8.0 7.9 99 1009.7 8.3 S 9.2 0.0 0.0
06:34 8.0 7.9 99 1009.8 8.3 S 9.2 0.0 0.0
06:35 8.0 7.9 99 1009.8 9.2 SE 9.2 0.0 0.0
06:36 8.0 7.9 99 1009.8 6.9 S 9.2 0.0 0.0
06:37 8.1 8.0 99 1009.7 7.6 S 9.2 0.0 0.0
06:38 8.0 7.9 99 1009.7 8.3 S 9.2 0.0 0.0
06:39 8.0 7.9 99 1009.7 9.2 S 9.2 0.0 0.0
06:40 8.1 8.0 99 1009.8 10.7 WSW 10.7 0.0 0.0
06:41 8.1 8.0 99 1009.7 10.7 SE 10.7 0.0 0.0
06:42 8.1 8.0 99 1009.8 10.7 SE 10.7 0.0 0.0
06:43 8.0 7.9 99 1009.8 9.8 S 10.7 0.0 0.0
06:44 8.1 8.0 99 1009.9 9.8 S 10.7 0.0 0.0
06:45 8.1 8.0 99 1009.9 9.8 S 10.7 0.0 0.0
06:46 8.2 8.1 99 1009.8 8.3 S 10.7 0.0 0.0
06:47 8.2 8.1 99 1009.9 9.2 S 10.7 0.0 0.0
06:48 8.2 8.1 99 1009.8 9.2 S 10.7 0.0 0.0
06:49 8.2 8.1 99 1009.9 9.2 WSW 10.7 0.0 0.0
06:50 8.2 8.1 99 1009.9 11.4 SE 11.4 0.0 0.0
06:51 8.2 8.1 99 1010.0 11.4 W 11.4 0.0 0.0
06:52 8.2 8.1 99 1009.9 9.8 S 11.4 0.0 0.0
06:53 8.2 8.1 99 1009.8 10.7 S 11.4 0.0 0.0
06:54 8.2 8.1 99 1010.0 13.0 S 13.0 0.0 0.0
06:55 8.3 8.2 99 1010.0 11.4 S 13.0 0.0 0.0
06:56 8.3 8.2 99 1010.2 8.3 S 13.0 0.0 0.0
06:57 8.3 8.2 99 1010.0 8.3 S 13.0 0.0 0.0
06:58 8.3 8.2 99 1010.0 9.2 S 13.0 0.0 0.0
06:59 8.3 8.2 99 1010.0 10.7 S 13.0 0.0 0.0
07:00 8.3 8.2 99 1009.9 10.7 S 13.0 0.0 0.0
07:01 8.3 8.2 99 1010.0 10.7 S 13.0 0.0 0.0
07:02 8.3 8.2 99 1010.0 10.7 S 13.0 0.0 0.0
07:03 8.3 8.2 99 1009.9 10.7 S 13.0 0.0 0.0
07:04 8.3 8.2 99 1010.0 9.2 W 13.0 0.0 0.0
07:05 8.3 8.2 99 1010.0 7.6 W 11.4 0.0 0.0
07:06 8.3 8.2 99 1010.0 6.9 W 10.7 0.0 0.0
07:07 8.3 8.2 99 1010.0 9.2 S 10.7 0.0 0.0
07:08 8.4 8.3 99 1010.1 10.7 WSW 10.7 0.0 0.0
07:09 8.4 8.3 99 1010.0 6.9 S 10.7 0.0 0.0
07:11 8.4 8.3 99 1010.0 8.3 S 10.7 0.0 0.0
07:12 8.3 8.2 99 1010.0 9.2 S 10.7 0.0 0.0
07:13 8.4 8.3 99 1010.1 8.3 S 10.7 0.0 0.0
07:14 8.4 8.3 99 1010.1 9.8 S 10.7 0.0 0.0
07:15 8.4 8.3 99 1010.2 8.3 S 10.7 0.0 0.0
07:16 8.4 8.3 99 1010.2 9.8 S 10.7 0.0 0.0
07:17 8.4 8.3 99 1010.1 8.3 S 10.7 0.0 0.0
07:18 8.4 8.3 99 1010.2 9.2 S 10.7 0.0 0.0
07:19 8.4 8.3 99 1010.2 9.8 WSW 9.8 0.0 0.0
07:20 8.4 8.3 99 1010.3 9.8 S 9.8 0.0 0.0
07:21 8.4 8.3 99 1010.3 9.2 S 9.8 0.0 0.0
07:22 8.5 8.4 99 1010.2 10.7 S 10.7 0.0 0.0
07:23 8.5 8.4 99 1010.2 12.1 S 12.1 0.0 0.0
07:24 8.5 8.4 99 1010.2 12.1 S 14.5 0.0 0.0
07:25 8.5 8.4 99 1010.2 12.1 S 14.5 0.0 0.0
07:26 8.6 8.5 99 1010.2 10.7 S 14.5 0.0 0.0
07:27 8.6 8.5 99 1010.3 10.7 S 14.5 0.0 0.0
07:28 8.6 8.5 99 1010.3 9.8 S 14.5 0.0 0.0
07:29 8.6 8.5 99 1010.2 10.7 S 14.5 0.0 0.0
07:30 8.6 8.5 99 1010.2 10.7 S 14.5 0.0 0.0
07:31 8.6 8.5 99 1010.3 9.2 W 14.5 0.0 0.0
07:32 8.7 8.6 99 1010.4 13.6 S 14.5 0.0 0.0
07:33 8.6 8.5 99 1010.2 13.0 S 13.6 0.0 0.0
07:34 8.7 8.6 99 1010.3 9.2 S 13.6 0.0 0.0
07:35 8.7 8.6 99 1010.2 9.8 E 13.6 0.0 0.0
07:36 8.7 8.6 99 1010.2 9.8 S 13.6 0.0 0.0
07:37 8.7 8.6 99 1010.3 9.2 S 13.6 0.0 0.0
07:38 8.7 8.6 99 1010.2 9.8 SE 13.6 0.0 0.0
07:39 8.7 8.6 99 1010.3 9.8 SE 13.6 0.0 0.0
07:40 8.7 8.6 99 1010.2 9.2 SE 13.6 0.0 0.0
07:41 8.8 8.7 99 1010.2 10.7 S 13.6 0.0 0.0
07:42 8.7 8.6 99 1010.3 8.3 S 13.0 0.0 0.0
07:43 8.8 8.7 99 1010.3 9.2 S 13.0 0.0 0.0
07:44 8.7 8.6 99 1010.2 9.8 S 10.7 0.0 0.0
07:45 8.8 8.7 99 1010.4 6.0 SE 10.7 0.0 0.0
07:47 8.8 8.7 99 1010.3 8.3 S 10.7 0.0 0.0
07:48 8.8 8.7 99 1010.3 11.4 W 13.0 0.0 0.0
07:49 8.9 8.8 99 1010.3 9.2 S 13.0 0.0 0.0
07:50 8.9 8.8 99 1010.4 7.6 S 13.0 0.0 0.0
07:51 8.9 8.8 99 1010.4 8.3 S 13.0 0.0 0.0
07:52 8.9 8.8 99 1010.5 10.7 SE 13.0 0.0 0.0
07:53 8.9 8.8 99 1010.5 11.4 S 13.0 0.0 0.0
07:54 8.9 8.8 99 1010.3 10.7 S 13.0 0.0 0.0
07:55 8.9 8.8 99 1010.4 13.0 S 13.0 0.0 0.0
07:56 8.8 8.7 99 1010.4 9.8 SE 13.0 0.0 0.0
07:57 9.0 8.9 99 1010.5 13.0 S 13.0 0.0 0.0
07:58 8.9 8.8 99 1010.5 12.1 S 13.0 0.0 0.0
07:59 9.0 8.9 99 1010.4 9.2 S 13.0 0.0 0.0
08:00 9.0 8.9 99 1010.6 9.2 S 13.0 0.0 0.0
08:01 9.0 8.9 99 1010.6 9.2 S 13.0 0.0 0.0
08:02 9.0 8.9 99 1010.5 9.2 S 13.0 0.0 0.0
08:03 9.0 8.9 99 1010.4 9.2 S 13.0 0.0 0.0
08:04 9.0 8.9 99 1010.3 9.2 S 13.0 0.0 0.0
08:05 9.0 8.9 99 1010.4 9.2 S 13.0 0.0 0.0
08:06 9.1 9.0 99 1010.5 12.1 S 13.0 0.0 0.0
08:07 9.2 9.1 99 1010.4 9.8 S 13.0 0.0 0.0
08:08 9.2 9.1 99 1010.4 10.7 S 12.1 0.0 0.0
08:09 9.2 9.1 99 1010.6 11.4 S 13.0 0.0 0.0
08:11 9.2 9.1 99 1010.6 11.4 SE 13.6 0.0 0.0
08:12 9.2 9.1 99 1010.5 6.9 S 13.6 0.0 0.0
08:14 9.2 9.1 99 1010.5 12.1 S 13.6 0.0 0.0
08:15 9.3 9.2 99 1010.6 14.5 NE 14.5 0.0 0.0
08:17 9.3 9.2 99 1010.5 14.5 SE 14.5 0.0 0.0
08:18 9.3 9.2 99 1010.7 12.1 S 14.5 0.0 0.0
08:19 9.3 9.2 99 1010.6 14.5 S 14.5 0.0 0.0
08:20 9.4 9.3 99 1010.6 10.7 S 14.5 0.0 0.0
08:21 9.4 9.3 99 1010.5 14.5 S 14.5 0.0 0.0
08:22 9.4 9.3 99 1010.6 13.6 SE 14.5 0.0 0.0
08:23 9.4 9.3 99 1010.7 13.0 S 14.5 0.0 0.0
08:24 9.4 9.3 99 1010.6 11.4 W 14.5 0.0 0.0
08:25 9.4 9.3 99 1010.7 15.9 S 15.9 0.0 0.0
08:26 9.5 9.4 99 1010.6 14.5 S 15.9 0.0 0.0
08:27 9.5 9.4 99 1010.7 14.5 S 15.9 0.0 0.0
08:28 9.5 9.4 99 1010.7 18.3 NE 18.3 0.0 0.0
08:29 9.5 9.4 99 1010.7 14.5 S 18.3 0.0 0.0
08:30 9.6 9.5 99 1010.8 15.9 SE 18.3 0.0 0.0
08:31 9.6 9.5 99 1010.7 13.6 S 18.3 0.0 0.0
08:32 9.6 9.5 99 1010.7 10.7 S 18.3 0.0 0.0
08:33 9.6 9.5 99 1010.9 13.0 SE 18.3 0.0 0.0
08:34 9.6 9.5 99 1010.8 13.6 SE 18.3 0.0 0.0
08:35 9.7 9.6 99 1010.9 13.6 S 18.3 0.0 0.0
08:36 9.7 9.6 99 1010.8 16.8 S 18.3 0.0 0.0
08:37 9.7 9.6 99 1010.8 9.8 S 18.3 0.0 0.0
08:38 9.8 9.7 99 1010.9 9.8 S 16.8 0.0 0.0
08:39 9.8 9.7 99 1010.9 15.2 S 16.8 0.0 0.0
08:40 9.8 9.7 99 1010.8 13.6 S 16.8 0.0 0.0
08:41 9.9 9.8 99 1010.9 15.2 S 16.8 0.0 0.0
08:42 9.8 9.7 99 1010.7 19.0 S 19.0 0.0 0.0
08:44 9.8 9.7 99 1010.7 18.3 SE 19.0 0.0 0.0
08:45 9.9 9.8 99 1010.7 16.8 S 19.0 0.0 0.0
08:46 9.9 9.8 99 1010.8 13.6 S 19.0 0.0 0.0
08:47 9.8 9.7 99 1010.7 15.2 SE 19.0 0.0 0.0
08:48 9.9 9.8 99 1010.7 13.6 SE 19.0 0.0 0.0
08:49 9.9 9.8 99 1010.8 18.3 SE 19.0 0.0 0.0
08:50 9.9 9.8 99 1011.1 21.3 S 21.3 0.0 0.0
08:51 9.8 9.7 99 1010.9 19.7 S 21.3 0.0 0.0
08:52 9.9 9.6 98 1011.0 12.1 SE 21.3 0.0 0.0
08:53 9.9 9.6 98 1010.8 12.1 SW 21.3 0.0 0.0
08:55 10.0 9.7 98 1010.7 13.0 S 21.3 0.0 0.0
08:56 10.0 9.9 99 1010.7 9.8 N 21.3 0.0 0.0
08:57 10.0 9.7 98 1010.7 14.5 N 21.3 0.0 0.0
08:58 10.0 9.9 99 1010.7 13.0 N 21.3 0.0 0.0
08:59 10.0 9.7 98 1010.8 14.5 S 21.3 0.0 0.0
09:00 10.1 9.8 98 1010.8 17.4 SE 21.3 0.0 0.0
09:01 10.1 9.8 98 1010.7 17.4 SE 19.7 0.0 0.0
09:02 10.1 9.8 98 1010.7 16.8 S 17.4 0.0 0.0
09:03 10.1 9.8 98 1010.7 13.6 S 17.4 0.0 0.0
09:04 10.1 9.8 98 1010.8 13.0 SE 17.4 0.0 0.0
09:05 10.1 9.8 98 1010.7 9.8 S 17.4 0.0 0.0
09:06 10.1 9.8 98 1010.7 14.5 S 17.4 0.0 0.0
09:07 10.1 9.6 97 1010.7 14.5 S 17.4 0.0 0.0
09:08 10.1 9.6 97 1010.7 17.4 S 17.4 0.0 0.0
09:09 10.2 9.6 96 1010.8 15.2 S 17.4 0.0 0.0
09:11 10.2 9.4 95 1010.8 14.5 SE 17.4 0.0 0.0
09:12 10.2 9.3 94 1010.8 12.1 SE 17.4 0.0 0.0
09:13 10.2 9.3 94 1010.7 16.8 S 17.4 0.0 0.0
09:15 10.2 9.1 93 1010.8 14.5 S 17.4 0.0 0.0
09:16 10.3 9.2 93 1010.7 10.7 S 17.4 0.0 0.0
09:17 10.3 9.2 93 1010.9 15.9 SE 17.4 0.0 0.0
09:18 10.3 9.1 92 1010.9 13.6 S 19.0 0.0 0.0
09:19 10.3 8.9 91 1010.9 15.2 S 19.0 0.0 0.0
09:20 10.3 8.9 91 1011.0 15.9 SE 19.0 0.0 0.0
09:21 10.4 9.0 91 1010.9 13.0 S 19.0 0.0 0.0
09:22 10.4 8.8 90 1010.9 14.5 S 19.0 0.0 0.0
09:23 10.4 8.8 90 1010.9 14.5 SE 19.0 0.0 0.0
09:24 10.5 8.8 89 1010.8 15.9 SE 19.0 0.0 0.0
09:25 10.5 8.8 89 1010.8 12.1 SW 19.0 0.0 0.0
09:26 10.6 9.0 90 1010.9 13.6 SW 19.0 0.0 0.0
09:28 10.6 8.9 89 1011.1 17.4 SE 18.3 0.0 0.0
09:29 10.7 8.8 88 1010.9 20.6 E 20.6 0.0 0.0
09:31 10.7 8.6 87 1010.9 14.5 S 20.6 0.0 0.0
09:32 10.7 8.6 87 1010.7 13.0 S 20.6 0.0 0.0
09:33 10.7 8.6 87 1010.8 18.3 S 20.6 0.0 0.0
09:34 10.7 8.5 86 1010.8 21.3 S 21.3 0.0 0.0
09:35 10.7 8.5 86 1010.7 9.8 SE 21.3 0.0 0.0
09:36 10.7 8.3 85 1010.7 15.2 S 21.3 0.0 0.0
09:38 10.8 8.4 85 1010.7 14.5 W 21.3 0.0 0.0
09:39 10.7 8.3 85 1010.7 15.2 S 21.3 0.0 0.0
09:40 10.8 8.4 85 1010.5 15.2 S 21.3 0.0 0.0
09:41 10.8 8.2 84 1010.7 19.7 S 21.3 0.0 0.0
09:42 10.8 8.0 83 1010.7 14.5 SW 21.3 0.0 0.0
09:43 10.9 8.1 83 1010.9 22.1 S 22.1 0.0 0.0
09:44 10.9 8.1 83 1010.8 16.8 S 22.1 0.0 0.0
09:45 10.9 8.0 82 1010.6 18.3 S 22.1 0.0 0.0
09:47 10.9 8.1 83 1010.9 15.2 S 22.1 0.0 0.0
09:48 11.0 8.2 83 1010.8 18.3 S 22.1 0.0 0.0
09:49 11.0 8.2 83 1010.8 17.4 S 22.1 0.0 0.0
09:50 11.0 8.2 83 1010.9 15.2 S 22.1 0.0 0.0
09:51 11.0 8.2 83 1010.9 19.0 S 22.1 0.0 0.0
09:52 11.0 8.2 83 1011.1 20.6 SE 22.1 0.0 0.0
09:53 11.0 8.2 83 1010.9 16.8 S 22.1 0.0 0.0
09:54 11.0 8.2 83 1011.0 13.6 S 21.3 0.0 0.0
09:55 11.0 8.2 83 1011.0 19.7 S 21.3 0.0 0.0
09:56 10.9 8.1 83 1011.0 19.0 S 21.3 0.0 0.0
09:57 10.9 8.1 83 1010.8 14.5 S 21.3 0.0 0.0
09:58 10.9 8.3 84 1010.9 13.0 W 21.3 0.0 0.0
10:00 11.0 8.4 84 1010.8 17.4 S 21.3 0.0 0.0
10:01 11.0 8.4 84 1011.0 17.4 S 21.3 0.0 0.0
10:02 11.0 8.4 84 1011.0 17.4 S 21.3 0.0 0.0
10:03 11.0 8.4 84 1011.0 17.4 S 19.7 0.0 0.0
10:04 11.0 8.6 85 1011.0 17.4 S 19.7 0.0 0.0
10:05 11.0 8.6 85 1011.0 16.8 S 19.0 0.0 0.0
10:07 11.0 8.6 85 1010.9 15.2 S 18.3 0.0 0.0
10:08 11.1 8.7 85 1011.0 19.0 S 19.0 0.0 0.0
10:09 11.1 8.7 85 1010.9 15.9 S 19.0 0.0 0.0
10:10 11.1 8.7 85 1011.0 13.0 S 19.0 0.0 0.0
10:11 11.2 8.8 85 1010.9 14.5 SW 19.0 0.0 0.0
10:13 11.2 8.9 86 1011.1 19.0 SE 19.0 0.0 0.0
10:14 11.2 8.8 85 1011.0 20.6 S 20.6 0.0 0.0
10:16 11.2 8.8 85 1011.0 18.3 S 20.6 0.0 0.0
10:17 11.2 8.8 85 1011.0 14.5 S 20.6 0.0 0.0
10:18 11.2 8.8 85 1011.1 22.1 SE 22.1 0.0 0.0
10:19 11.2 8.8 85 1011.0 11.4 S 22.1 0.0 0.0
10:20 11.2 8.8 85 1011.2 17.4 SE 22.1 0.0 0.0
10:21 11.2 8.8 85 1011.1 14.5 S 22.1 0.0 0.0
10:22 11.2 8.8 85 1011.2 16.8 S 22.1 0.0 0.0
10:23 11.2 8.8 85 1011.1 14.5 S 22.1 0.0 0.0
10:24 11.2 8.8 85 1011.1 13.6 S 22.1 0.0 0.0
10:25 11.2 8.8 85 1011.1 15.2 S 22.1 0.0 0.0
10:26 11.2 8.8 85 1011.2 18.3 S 22.1 0.0 0.0
10:28 11.2 8.8 85 1011.2 19.0 S 22.1 0.0 0.0
10:29 11.2 8.8 85 1011.2 15.2 SW 19.0 0.0 0.0
10:30 11.2 8.8 85 1011.1 20.6 S 20.6 0.0 0.0
10:31 11.2 8.8 85 1011.3 19.7 S 20.6 0.0 0.0
10:32 11.2 8.8 85 1011.4 20.6 S 20.6 0.0 0.0
10:33 11.2 8.6 84 1011.3 19.7 SE 20.6 0.0 0.0
10:34 11.2 8.6 84 1011.3 18.3 WNW 23.5 0.0 0.0
10:35 11.2 8.6 84 1011.3 18.3 S 23.5 0.0 0.0
10:36 11.2 8.8 85 1011.3 19.0 S 23.5 0.0 0.0
10:37 11.2 8.8 85 1011.2 17.4 W 23.5 0.0 0.0
10:38 11.2 8.6 84 1011.4 22.8 S 23.5 0.0 0.0
10:39 11.2 8.6 84 1011.3 21.3 SW 23.5 0.0 0.0
10:40 11.2 8.6 84 1011.3 18.3 S 23.5 0.0 0.0
10:41 11.2 8.6 84 1011.4 22.8 SE 23.5 0.0 0.0
10:42 11.2 8.6 84 1011.3 15.9 SE 23.5 0.0 0.0
10:43 11.3 8.7 84 1011.4 22.8 S 23.5 0.0 0.0
10:44 11.3 8.7 84 1011.3 21.3 S 23.5 0.0 0.0
10:45 11.3 8.7 84 1011.5 23.5 S 23.5 0.0 0.0
10:46 11.4 8.8 84 1011.4 22.1 S 23.5 0.0 0.0
10:47 11.4 8.8 84 1011.5 19.0 S 23.5 0.0 0.0
10:48 11.5 8.9 84 1011.5 19.0 SW 23.5 0.0 0.0
10:50 11.6 9.0 84 1011.4 17.4 S 23.5 0.0 0.0
10:51 11.6 9.0 84 1011.4 18.3 SW 23.5 0.0 0.0
10:52 11.7 9.1 84 1011.5 25.1 SE 25.1 0.0 0.0
10:53 11.7 8.9 83 1011.5 24.4 SE 25.1 0.0 0.0
10:54 11.7 8.9 83 1011.6 25.9 S 25.9 0.0 0.0
10:55 11.7 8.9 83 1011.7 15.2 S 25.9 0.0 0.0
10:56 11.8 9.2 84 1011.7 18.3 S 25.9 0.0 0.0
10:57 11.8 9.2 84 1011.7 19.7 SE 25.9 0.0 0.0
10:58 11.9 9.1 83 1011.7 21.3 S 25.9 0.0 0.0
10:59 11.9 9.1 83 1011.7 17.4 SW 25.9 0.0 0.0
11:00 11.9 9.1 83 1011.8 19.7 S 25.9 0.0 0.0
11:01 11.9 9.1 83 1011.7 19.7 S 25.9 0.0 0.0
11:02 11.9 9.1 83 1011.7 19.7 S 25.9 0.0 0.0
11:03 11.8 9.0 83 1011.5 19.0 N 25.9 0.0 0.0
11:04 11.8 9.0 83 1011.7 17.4 N 21.3 0.0 0.0
11:05 11.9 9.1 83 1011.7 22.8 SE 22.8 0.0 0.0
11:06 11.8 9.0 83 1011.7 19.7 S 22.8 0.0 0.0
11:07 11.8 9.0 83 1011.6 17.4 S 22.8 0.0 0.0
11:08 11.8 9.0 83 1011.6 18.3 S 22.8 0.0 0.0
11:09 11.8 9.0 83 1011.7 23.5 S 23.5 0.0 0.0
11:10 11.8 8.8 82 1011.7 19.7 S 23.5 0.0 0.0
11:11 11.7 8.7 82 1011.8 17.4 S 23.5 0.0 0.0
11:12 11.8 9.0 83 1011.6 21.3 SE 23.5 0.0 0.0
11:13 11.8 8.8 82 1011.6 22.1 S 23.5 0.0 0.0
11:15 11.8 8.8 82 1011.8 25.9 W 25.9 0.0 0.0
11:16 11.8 8.6 81 1011.8 21.3 S 25.9 0.0 0.0
11:17 11.8 8.6 81 1011.7 19.0 SE 25.9 0.0 0.0
11:18 11.8 8.6 81 1011.8 21.3 S 25.9 0.0 0.0
11:19 11.8 8.8 82 1011.7 18.3 S 25.9 0.0 0.0
11:20 11.8 8.6 81 1011.8 25.1 S 25.9 0.0 0.0
11:21 11.8 8.6 81 1011.9 23.5 S 25.9 0.0 0.0
11:22 11.8 8.5 80 1011.7 16.8 SE 25.9 0.0 0.0
11:23 11.7 8.4 80 1011.8 19.7 SE 25.9 0.0 0.0
11:24 11.7 8.2 79 1011.7 24.4 S 25.9 0.0 0.0
11:25 11.7 8.0 78 1011.8 22.1 SE 25.1 0.0 0.0
11:26 11.7 8.0 78 1011.8 19.0 S 25.1 0.0 0.0
11:28 11.6 8.1 79 1011.8 20.6 S 25.1 0.0 0.0
11:29 11.7 8.4 80 1011.8 16.8 S 25.1 0.0 0.0
11:30 11.7 8.4 80 1011.8 22.1 SE 25.1 0.0 0.0
11:31 11.6 8.3 80 1011.9 20.6 WNW 24.4 0.0 0.0
11:32 11.6 8.3 80 1011.7 21.3 S 24.4 0.0 0.0
11:33 11.6 8.3 80 1011.8 18.3 S 24.4 0.0 0.0
11:34 11.6 8.3 80 1011.7 22.1 S 24.4 0.0 0.0
11:35 11.6 8.3 80 1011.8 16.8 S 22.1 0.0 0.0
11:36 11.6 8.1 79 1011.7 23.5 S 23.5 0.0 0.0
11:37 11.6 8.1 79 1011.9 23.5 S 23.5 0.0 0.0
11:38 11.6 8.1 79 1011.9 15.2 NNW 23.5 0.0 0.0
11:39 11.6 8.3 80 1011.9 22.8 SE 23.5 0.0 0.0
11:40 11.6 8.3 80 1011.8 23.5 S 23.5 0.0 0.0
11:41 11.6 8.3 80 1011.9 22.1 SE 23.5 0.0 0.0
11:42 11.6 8.3 80 1011.7 21.3 SE 23.5 0.0 0.0
11:43 11.6 8.3 80 1011.9 21.3 S 23.5 0.0 0.0
11:44 11.6 8.3 80 1011.7 22.8 SE 23.5 0.0 0.0
11:45 11.5 8.2 80 1011.7 20.6 E 23.5 0.0 0.0
11:46 11.5 8.2 80 1011.7 23.5 S 23.5 0.0 0.0
11:47 11.5 8.2 80 1011.8 22.1 S 23.5 0.0 0.0
11:48 11.6 8.3 80 1011.6 22.8 S 23.5 0.0 0.0
11:49 11.6 8.5 81 1011.8 17.4 SW 23.5 0.0 0.0
11:50 11.6 8.5 81 1011.6 15.9 S 23.5 0.0 0.0
11:51 11.6 8.5 81 1011.7 13.6 S 23.5 0.0 0.0
11:52 11.6 8.5 81 1011.7 22.8 S 23.5 0.0 0.0
11:53 11.6 8.5 81 1011.7 19.7 S 23.5 0.0 0.0
11:54 11.7 8.6 81 1011.7 20.6 S 23.5 0.0 0.0
11:55 11.7 8.6 81 1011.6 19.0 S 23.5 0.0 0.0
11:56 11.8 8.6 81 1011.6 18.3 S 22.8 0.0 0.0
11:57 11.7 8.6 81 1011.8 21.3 S 22.8 0.0 0.0
11:58 11.8 8.5 80 1011.8 21.3 SE 22.8 0.0 0.0
11:59 11.8 8.5 80 1011.8 24.4 SE 24.4 0.0 0.0
12:01 11.8 8.5 80 1011.6 24.4 SE 24.4 0.0 0.0
12:02 11.8 8.5 80 1011.8 21.3 S 24.4 0.0 0.0
12:03 11.9 8.6 80 1011.6 24.4 SE 24.4 0.0 0.0
12:04 11.9 8.6 80 1011.5 21.3 SE 24.4 0.0 0.0
12:05 12.0 8.7 80 1011.6 19.0 S 24.4 0.0 0.0
12:06 12.0 8.8 81 1011.6 23.5 S 24.4 0.0 0.0
12:07 12.1 8.8 80 1011.5 22.8 SE 24.4 0.0 0.0
12:08 12.1 8.8 80 1011.6 21.3 S 24.4 0.0 0.0
12:09 12.1 8.8 80 1011.8 26.6 S 26.6 0.0 0.0
12:10 12.0 8.3 78 1011.5 22.1 S 29.8 0.0 0.0
12:12 12.0 8.3 78 1011.6 21.3 S 29.8 0.0 0.0
12:13 12.0 8.3 78 1011.3 21.3 S 29.8 0.0 0.0
12:15 11.9 8.2 78 1011.4 18.3 W 29.8 0.0 0.0
12:16 11.9 8.4 79 1011.4 19.7 SE 29.8 0.0 0.0
12:17 11.9 8.4 79 1011.5 22.1 SW 29.8 0.0 0.0
12:18 11.9 8.6 80 1011.5 18.3 SE 29.8 0.0 0.0
12:20 12.0 8.7 80 1011.4 19.7 S 24.4 0.0 0.0
12:21 12.1 8.6 79 1011.5 23.5 SE 24.4 0.0 0.0
12:22 12.1 8.6 79 1011.5 18.3 SE 24.4 0.0 0.0
12:23 12.2 8.7 79 1011.7 19.0 S 23.5 0.0 0.0
12:24 12.2 8.7 79 1011.6 18.3 W 23.5 0.0 0.0
12:25 12.3 8.6 78 1011.6 20.6 SE 23.5 0.0 0.0
12:26 12.3 8.8 79 1011.8 24.4 S 24.4 0.0 0.0
12:27 12.4 8.5 77 1011.4 31.1 NW 31.1 0.0 0.0
12:28 12.4 8.5 77 1011.6 22.1 SE 31.1 0.0 0.0
12:30 12.5 8.8 78 1011.6 19.0 S 31.1 0.0 0.0
12:31 12.5 8.6 77 1011.6 20.6 S 31.1 0.0 0.0
12:32 12.6 8.7 77 1011.7 20.6 S 31.1 0.0 0.0
12:33 12.6 8.7 77 1011.7 19.0 S 31.1 0.0 0.0
12:34 12.7 8.4 75 1011.8 25.1 S 31.1 0.0 0.0
12:35 12.7 8.6 76 1011.7 17.4 S 31.1 0.0 0.0
12:36 12.7 8.4 75 1011.8 25.9 S 31.1 0.0 0.0
12:37 12.8 8.5 75 1011.8 25.1 S 31.1 0.0 0.0
12:38 12.8 8.5 75 1011.7 22.8 SE 25.9 0.0 0.0
12:39 12.8 8.5 75 1011.9 17.4 S 25.9 0.0 0.0
12:41 12.8 8.3 74 1011.9 23.5 S 27.3 0.0 0.0
12:42 12.8 8.1 73 1011.8 22.8 S 27.3 0.0 0.0
12:44 12.8 8.1 73 1011.8 26.6 S 27.3 0.0 0.0
12:45 12.9 8.4 74 1011.8 17.4 S 27.3 0.0 0.0
12:46 13.1 8.6 74 1011.7 21.3 W 27.3 0.0 0.0
12:47 13.1 8.4 73 1011.8 28.9 S 28.9 0.0 0.0
12:48 13.1 8.0 71 1011.8 33.6 S 33.6 0.0 0.0
12:50 13.1 8.0 71 1011.7 22.8 S 33.6 0.0 0.0
12:51 13.1 7.8 70 1011.6 25.1 S 33.6 0.0 0.0
12:52 13.1 7.8 70 1011.7 20.6 S 33.6 0.0 0.0
12:53 13.0 7.7 70 1011.6 23.5 NNW 33.6 0.0 0.0
12:54 13.0 7.7 70 1011.8 22.8 S 33.6 0.0 0.0
12:55 13.0 7.7 70 1011.6 24.4 S 33.6 0.0 0.0
12:56 13.0 7.7 70 1011.7 22.8 S 33.6 0.0 0.0
12:57 13.0 7.4 69 1011.5 25.9 S 33.6 0.0 0.0
12:58 13.0 7.9 71 1011.6 19.7 SE 33.6 0.0 0.0
12:59 13.0 7.9 71 1011.5 19.7 S 25.9 0.0 0.0
13:00 13.0 7.9 71 1011.6 19.7 S 25.9 0.0 0.0
13:01 13.0 7.9 71 1011.6 19.7 S 25.9 0.0 0.0
13:02 13.2 8.5 73 1011.7 19.7 SW 25.9 0.0 0.0
13:03 13.3 8.2 71 1011.7 20.6 S 25.9 0.0 0.0
13:05 13.3 8.2 71 1011.7 22.1 S 25.9 0.0 0.0
13:06 13.3 8.2 71 1011.4 22.1 S 25.9 0.0 0.0
13:07 13.3 8.4 72 1011.3 12.1 S 22.8 0.0 0.0
13:08 13.4 8.5 72 1011.6 19.0 S 22.8 0.0 0.0
13:09 13.4 8.3 71 1011.5 25.9 SW 25.9 0.0 0.0
13:10 13.4 8.3 71 1011.5 25.9 SE 25.9 0.0 0.0
13:12 13.4 8.3 71 1011.4 22.8 S 25.9 0.0 0.0
13:13 13.2 8.1 71 1011.7 26.6 SE 26.6 0.0 0.0
13:14 13.2 7.9 70 1011.6 27.3 S 27.3 0.0 0.0
13:15 13.1 7.8 70 1011.4 25.9 SE 27.3 0.0 0.0
13:16 13.0 7.9 71 1011.4 21.3 SE 27.3 0.0 0.0
13:17 12.9 7.8 71 1011.5 26.6 S 27.3 0.0 0.0
13:18 12.8 7.9 72 1011.5 22.1 S 27.3 0.0 0.0
13:19 12.8 7.9 72 1011.6 24.4 SE 27.3 0.0 0.0
13:20 12.8 7.9 72 1011.3 19.7 S 27.3 0.0 0.0
13:21 12.7 8.0 73 1011.4 15.9 S 27.3 0.0 0.0
13:23 12.7 8.0 73 1011.4 25.9 SE 27.3 0.0 0.0
13:24 12.7 8.0 73 1011.5 20.6 S 27.3 0.0 0.0
13:25 12.6 7.7 72 1011.3 26.6 S 26.6 0.0 0.0
13:26 12.6 7.7 72 1011.5 21.3 W 26.6 0.0 0.0
13:27 12.6 7.9 73 1011.4 21.3 SW 26.6 0.0 0.0
13:28 12.5 7.8 73 1011.2 23.5 S 26.6 0.0 0.0
13:29 12.5 7.8 73 1011.3 22.8 S 26.6 0.0 0.0
13:30 12.4 7.7 73 1011.3 24.4 SE 26.6 0.0 0.0
13:31 12.4 7.7 73 1011.3 25.1 S 26.6 0.0 0.0
13:32 12.4 7.7 73 1011.3 25.9 SE 26.6 0.0 0.0
13:33 12.3 7.8 74 1011.4 19.0 S 26.6 0.0 0.0
13:34 12.3 7.8 74 1011.3 21.3 SE 26.6 0.0 0.0
13:35 12.2 7.9 75 1011.5 20.6 S 27.3 0.0 0.0
13:36 12.2 7.9 75 1011.5 22.1 S 27.3 0.0 0.0
13:37 12.2 7.9 75 1011.6 28.9 SE 28.9 0.0 0.0
13:39 12.2 7.9 75 1011.3 27.3 S 28.9 0.0 0.0
13:40 12.2 7.9 75 1011.3 24.4 S 28.9 0.0 0.0
13:41 12.2 7.9 75 1011.2 19.7 SE 28.9 0.0 0.0
13:42 12.2 8.1 76 1011.1 28.2 S 28.9 0.0 0.0
13:43 12.2 8.1 76 1011.2 22.1 S 28.9 0.0 0.0
13:44 12.2 8.1 76 1011.1 20.6 S 28.9 0.0 0.0
13:45 12.2 8.1 76 1011.4 22.1 SE 28.9 0.0 0.0
13:46 12.2 8.1 76 1011.2 25.1 S 28.9 0.0 0.0
13:47 12.3 8.2 76 1011.3 24.4 NE 28.9 0.0 0.0
13:48 12.3 8.4 77 1011.3 24.4 S 28.2 0.0 0.0
13:49 12.3 8.4 77 1011.3 20.6 SE 28.2 0.0 0.0
13:51 12.4 8.7 78 1011.3 24.4 S 28.2 0.0 0.0
13:52 12.5 8.8 78 1011.1 18.3 WSW 28.2 0.0 0.0
13:53 12.5 8.8 78 1011.2 18.3 S 28.2 0.0 0.0
13:54 12.6 8.9 78 1011.2 28.2 E 28.2 0.0 0.0
13:55 12.7 9.0 78 1011.3 24.4 S 28.2 0.0 0.0
13:56 12.7 8.8 77 1011.4 24.4 S 28.2 0.0 0.0
13:57 12.7 8.8 77 1011.4 25.9 E 28.2 0.0 0.0
13:58 12.8 8.9 77 1011.2 29.8 S 29.8 0.0 0.0
13:59 12.8 8.9 77 1011.3 22.8 W 29.8 0.0 0.0
14:00 12.8 8.9 77 1011.2 22.8 W 29.8 0.0 0.0
14:01 12.8 8.9 77 1011.1 22.8 W 29.8 0.0 0.0
14:02 12.9 9.0 77 1011.2 18.3 SW 29.8 0.0 0.0
14:03 12.8 8.7 76 1011.4 24.4 SE 29.8 0.0 0.0
14:05 12.8 8.7 76 1011.3 25.9 S 29.8 0.0 0.0
14:06 12.8 8.9 77 1011.3 21.3 S 29.8 0.0 0.0
14:07 12.8 8.9 77 1011.5 24.4 S 29.8 0.0 0.0
14:09 12.9 9.0 77 1011.3 27.3 SE 27.3 0.0 0.0
14:10 12.9 9.0 77 1011.4 30.4 S 30.4 0.0 0.0
14:11 12.9 9.0 77 1011.2 20.6 N 30.4 0.0 0.0
14:13 12.9 9.0 77 1011.3 23.5 SE 30.4 0.0 0.0
14:14 13.0 9.1 77 1011.3 21.3 SE 30.4 0.0 0.0
14:16 13.1 9.2 77 1011.3 24.4 S 30.4 0.0 0.0
14:17 13.1 9.2 77 1011.3 25.1 SE 30.4 0.0 0.0
14:18 13.2 9.3 77 1011.3 32.7 SE 32.7 0.0 0.0
14:19 13.1 9.0 76 1011.3 22.8 S 32.7 0.0 0.0
14:20 13.1 9.0 76 1011.3 22.1 S 32.7 0.0 0.0
14:21 13.1 9.2 77 1011.3 21.3 SE 32.7 0.0 0.0
14:22 13.1 9.2 77 1011.3 19.0 S 32.7 0.0 0.0
14:23 13.1 9.0 76 1011.2 22.8 SE 32.7 0.0 0.0
14:25 13.1 9.0 76 1011.3 25.1 SW 32.7 0.0 0.0
14:26 13.0 9.1 77 1011.3 22.1 SE 32.7 0.0 0.0
14:27 13.0 8.9 76 1011.2 25.9 SW 32.7 0.0 0.0
14:28 13.0 8.9 76 1011.2 22.8 SE 32.7 0.0 0.0
14:29 13.0 9.1 77 1011.5 19.7 S 26.6 0.0 0.0
14:30 13.0 8.9 76 1011.4 23.5 S 26.6 0.0 0.0
14:31 12.9 9.0 77 1011.5 24.4 SE 26.6 0.0 0.0
14:32 12.9 9.0 77 1011.5 24.4 SE 26.6 0.0 0.0
14:34 12.9 9.0 77 1011.4 22.8 S 26.6 0.0 0.0
14:35 12.8 8.9 77 1011.5 21.3 SE 26.6 0.0 0.0
14:36 12.8 8.9 77 1011.5 21.3 S 26.6 0.0 0.0
14:37 12.8 9.1 78 1011.5 19.0 S 26.6 0.0 0.0
14:38 12.8 9.3 79 1011.4 15.2 SE 26.6 0.0 0.0
14:39 12.9 9.2 78 1011.5 24.4 SE 26.6 0.0 0.0
14:40 12.9 9.0 77 1011.5 25.1 S 25.1 0.0 0.0
14:41 12.8 8.9 77 1011.4 21.3 S 25.1 0.0 0.0
14:42 12.7 9.0 78 1011.2 23.5 NNW 26.6 0.0 0.0
14:43 12.6 8.9 78 1011.5 19.7 S 26.6 0.0 0.0
14:44 12.6 8.9 78 1011.4 30.4 SE 30.4 0.0 0.0
14:45 12.6 8.9 78 1011.4 28.2 S 30.4 0.0 0.0
14:46 12.5 9.0 79 1011.2 20.6 S 30.4 0.0 0.0
14:47 12.5 9.0 79 1011.4 17.4 S 30.4 0.0 0.0
14:49 12.5 9.0 79 1011.2 25.1 SE 30.4 0.0 0.0
14:50 12.4 8.9 79 1011.4 23.5 WNW 32.7 0.0 0.0
14:51 12.4 9.0 80 1011.2 20.6 SE 32.7 0.0 0.0
14:52 12.4 9.0 80 1011.2 29.8 SE 32.7 0.0 0.0
14:53 12.4 9.0 80 1011.3 19.7 S 32.7 0.0 0.0
14:54 12.4 8.9 79 1011.3 28.9 NW 32.7 0.0 0.0
14:55 12.4 9.0 80 1011.3 21.3 S 32.7 0.0 0.0
14:56 12.4 9.0 80 1011.3 25.1 S 32.7 0.0 0.0
14:57 12.4 9.0 80 1011.4 22.1 S 32.7 0.0 0.0
14:58 12.4 9.2 81 1011.3 19.7 S 32.7 0.0 0.0
14:59 12.4 9.2 81 1011.4 22.1 S 29.8 0.0 0.0
15:00 12.4 9.2 81 1011.3 22.1 S 29.8 0.0 0.0
15:01 12.4 9.2 81 1011.3 22.1 S 29.8 0.0 0.0
15:02 12.3 9.1 81 1011.3 25.1 S 29.8 0.0 0.0
15:03 12.3 9.1 81 1011.1 18.3 SE 28.9 0.0 0.0
15:04 12.3 9.1 81 1011.4 24.4 SW 28.9 0.0 0.0
15:05 12.3 9.1 81 1011.2 19.7 SE 25.1 0.0 0.0
15:06 12.3 9.1 81 1011.3 24.4 S 25.1 0.0 0.0
15:08 12.4 9.2 81 1011.3 23.5 S 25.1 0.0 0.0
15:10 12.3 9.1 81 1011.1 22.8 SE 25.1 0.0 0.0
15:11 12.3 9.1 81 1011.2 20.6 S 25.1 0.0 0.0
15:12 12.3 9.1 81 1011.3 27.3 S 27.3 0.0 0.0
15:13 12.3 9.1 81 1011.2 23.5 S 27.3 0.0 0.0
15:14 12.3 9.1 81 1011.1 22.1 S 27.3 0.0 0.0
15:15 12.2 9.0 81 1011.1 22.1 SE 27.3 0.0 0.0
15:16 12.2 9.0 81 1011.3 19.7 S 27.3 0.0 0.0
15:17 12.2 9.0 81 1011.2 21.3 SE 27.3 0.0 0.0
15:18 12.2 9.2 82 1011.0 19.0 S 27.3 0.0 0.0
15:19 12.2 9.2 82 1011.1 15.9 S 27.3 0.0 0.0
15:20 12.2 9.0 81 1011.2 28.9 S 28.9 0.0 0.0
15:21 12.1 8.9 81 1011.2 19.7 SW 28.9 0.0 0.0
15:22 12.1 8.9 81 1011.2 21.3 S 28.9 0.0 0.0
15:23 12.0 8.8 81 1011.1 16.8 S 28.9 0.0 0.0
15:24 12.0 9.0 82 1011.1 19.7 NNW 28.9 0.0 0.0
15:25 12.0 9.0 82 1011.2 19.7 S 28.9 0.0 0.0
15:26 12.0 9.0 82 1011.2 19.7 SW 28.9 0.0 0.0
15:27 12.0 9.0 82 1011.0 22.8 S 28.9 0.0 0.0
15:28 12.0 9.2 83 1011.0 22.8 S 28.9 0.0 0.0
15:29 12.0 9.2 83 1010.9 26.6 S 28.9 0.0 0.0
15:30 12.0 9.2 83 1011.0 18.3 SE 28.9 0.0 0.0
15:31 12.0 9.2 83 1011.0 24.4 SE 28.9 0.0 0.0
15:32 12.0 9.2 83 1011.2 24.4 SE 28.9 0.0 0.0
15:33 12.0 9.2 83 1011.1 23.5 WSW 28.9 0.0 0.0
15:35 12.0 9.2 83 1011.1 26.6 S 28.9 0.0 0.0
15:36 12.0 9.2 83 1010.9 22.8 SE 28.9 0.0 0.0
15:37 12.0 9.2 83 1010.9 22.8 SE 26.6 0.0 0.0
15:38 12.0 9.2 83 1011.0 25.9 SE 26.6 0.0 0.0
15:39 11.9 9.1 83 1011.1 19.0 S 26.6 0.0 0.0
15:40 11.9 9.1 83 1011.0 20.6 SE 26.6 0.0 0.0
15:41 11.9 9.1 83 1010.9 24.4 S 32.0 0.0 0.0
15:42 11.9 9.1 83 1011.1 28.9 S 32.0 0.0 0.0
15:43 11.8 9.0 83 1011.0 22.8 SE 32.0 0.0 0.0
15:44 11.8 9.0 83 1011.2 25.9 SE 32.0 0.0 0.0
15:45 11.8 9.0 83 1011.2 30.4 S 32.0 0.0 0.0
15:46 11.8 9.0 83 1011.0 20.6 S 32.0 0.0 0.0
15:47 11.8 9.2 84 1011.0 22.1 SE 32.0 0.0 0.0
15:48 11.8 9.2 84 1010.9 24.4 SE 32.0 0.0 0.0
15:50 11.8 9.2 84 1011.0 25.9 S 32.0 0.0 0.0
15:51 11.7 9.1 84 1011.0 26.6 S 30.4 0.0 0.0
15:52 11.7 9.1 84 1011.1 21.3 SW 30.4 0.0 0.0
15:53 11.7 9.1 84 1011.1 20.6 S 30.4 0.0 0.0
15:54 11.6 9.0 84 1011.1 21.3 S 30.4 0.0 0.0
15:55 11.6 9.0 84 1011.2 23.5 SE 30.4 0.0 0.0
15:56 11.6 9.2 85 1011.2 26.6 SE 30.4 0.0 0.0
15:57 11.6 9.2 85 1011.0 22.8 S 30.4 0.0 0.0
15:58 11.6 9.2 85 1011.1 19.0 S 30.4 0.0 0.0
15:59 11.6 9.2 85 1011.0 24.4 SE 30.4 0.0 0.0
16:00 11.6 9.2 85 1011.1 24.4 SE 30.4 0.0 0.0
16:01 11.6 9.2 85 1011.1 24.4 SE 30.4 0.0 0.0
16:02 11.6 9.2 85 1011.0 25.1 SE 30.4 0.0 0.0
16:03 11.5 9.1 85 1011.0 16.8 S 26.6 0.0 0.0
16:04 11.5 9.1 85 1011.1 15.9 S 26.6 0.0 0.0
16:05 11.5 9.1 85 1011.0 20.6 SE 26.6 0.0 0.0
16:07 11.5 9.2 86 1011.0 24.4 S 25.1 0.0 0.0
16:08 11.5 9.2 86 1010.9 15.9 SE 25.1 0.0 0.0
16:09 11.5 9.2 86 1010.9 28.2 SE 28.2 0.0 0.0
16:10 11.5 9.2 86 1010.9 22.8 SE 28.2 0.0 0.0
16:11 11.4 9.1 86 1010.9 20.6 S 28.2 0.0 0.0
16:13 11.4 9.1 86 1010.9 19.7 SE 28.2 0.0 0.0
16:14 11.4 9.1 86 1010.8 19.0 S 28.2 0.0 0.0
16:16 11.4 9.1 86 1010.8 19.7 SE 28.2 0.0 0.0
16:17 11.4 9.1 86 1010.8 21.3 S 28.2 0.0 0.0
16:18 11.4 9.1 86 1010.8 27.3 S 28.2 0.0 0.0
16:20 11.4 9.1 86 1010.7 31.1 S 31.1 0.0 0.0
16:21 11.4 9.1 86 1010.7 25.1 SE 31.1 0.0 0.0
16:22 11.3 9.0 86 1010.9 21.3 SE 31.1 0.0 0.0
16:23 11.3 9.0 86 1010.8 25.9 SE 31.1 0.0 0.0
16:24 11.3 9.0 86 1010.8 25.1 SE 31.1 0.0 0.0
16:25 11.3 9.0 86 1010.9 22.8 S 31.1 0.0 0.0
16:26 11.3 9.0 86 1010.8 23.5 S 31.1 0.0 0.0
16:27 11.3 9.2 87 1010.8 26.6 S 31.1 0.0 0.0
16:28 11.2 9.1 87 1010.7 24.4 SE 31.1 0.0 0.0
16:29 11.2 9.1 87 1010.8 27.3 S 31.1 0.0 0.0
16:30 11.2 9.1 87 1010.8 22.1 SE 27.3 0.0 0.0
16:31 11.2 9.1 87 1010.7 19.0 SE 27.3 0.0 0.0
16:32 11.2 9.1 87 1010.8 25.1 SE 27.3 0.0 0.0
16:33 11.2 9.1 87 1010.9 25.1 SE 27.3 0.0 0.0
16:34 11.1 9.0 87 1011.0 27.3 S 27.3 0.0 0.0
16:35 11.1 9.0 87 1010.9 24.4 S 27.3 0.0 0.0
16:36 11.1 9.0 87 1010.8 22.8 SE 27.3 0.0 0.0
16:38 11.1 9.0 87 1010.8 26.6 S 27.3 0.0 0.0
16:39 11.1 9.0 87 1010.9 22.1 S 27.3 0.0 0.0
16:40 11.1 9.0 87 1010.9 28.9 S 28.9 0.0 0.0
16:41 11.0 9.1 88 1010.8 22.8 W 28.9 0.0 0.0
16:43 11.0 9.1 88 1010.9 13.0 S 28.9 0.0 0.0
16:44 11.0 9.1 88 1011.0 26.6 SE 28.9 0.0 0.0
16:45 10.9 9.0 88 1010.9 25.1 SE 28.9 0.0 0.0
16:46 10.9 9.2 89 1010.8 20.6 S 28.9 0.0 0.0
16:47 10.9 9.2 89 1010.8 19.7 S 28.9 0.0 0.0
16:48 10.9 9.2 89 1010.8 24.4 S 28.9 0.0 0.0
16:49 10.9 9.2 89 1010.7 25.9 SE 28.9 0.0 0.0
16:51 10.8 9.1 89 1010.8 19.7 S 26.6 0.0 0.0
16:52 10.8 9.1 89 1010.7 22.8 W 26.6 0.0 0.0
16:53 10.8 9.1 89 1010.8 20.6 SE 26.6 0.0 0.0
16:54 10.8 9.2 90 1010.9 15.9 SE 25.9 0.0 0.0
16:55 10.7 9.1 90 1010.7 25.9 SE 25.9 0.0 0.0
16:56 10.8 9.2 90 1010.9 16.8 S 25.9 0.0 0.0
16:57 10.7 9.1 90 1010.9 28.9 WNW 28.9 0.0 0.0
16:58 10.7 9.1 90 1010.8 22.1 SE 28.9 0.0 0.0
16:59 10.7 9.1 90 1010.8 27.3 S 28.9 0.0 0.0
17:00 10.7 9.1 90 1010.8 27.3 S 28.9 0.0 0.0
17:02 10.6 9.0 90 1010.8 18.3 SE 28.9 0.0 0.0
17:03 10.6 9.2 91 1010.8 19.0 S 28.9 0.0 0.0
17:04 10.6 9.2 91 1010.9 19.0 W 28.9 0.0 0.0
17:05 10.6 9.2 91 1010.9 25.1 SE 28.9 0.0 0.0
17:06 10.6 9.2 91 1011.1 21.3 S 28.9 0.0 0.0
17:07 10.6 9.2 91 1010.9 22.1 S 27.3 0.0 0.0
17:08 10.6 9.2 91 1010.9 20.6 S 27.3 0.0 0.0
17:09 10.6 9.2 91 1011.0 22.8 S 27.3 0.0 0.0
17:10 10.6 9.4 92 1011.1 24.4 SE 27.3 0.0 0.0
17:11 10.6 9.4 92 1011.1 28.9 S 28.9 0.0 0.0
17:12 10.6 9.4 92 1011.0 21.3 S 28.9 0.0 0.0
17:13 10.6 9.4 92 1011.1 19.0 S 28.9 0.0 0.0
17:14 10.6 9.4 92 1011.0 22.8 SE 28.9 0.0 0.0
17:16 10.6 9.4 92 1011.1 17.4 S 28.9 0.0 0.0
17:17 10.5 9.3 92 1010.9 21.3 S 28.9 0.0 0.0
17:18 10.5 9.3 92 1010.9 22.8 SE 28.9 0.0 0.0
17:19 10.5 9.3 92 1011.0 25.1 S 28.9 0.0 0.0
17:20 10.5 9.3 92 1011.0 22.1 S 28.9 0.0 0.0
17:21 10.5 9.3 92 1011.0 23.5 SE 28.9 0.0 0.0
17:23 10.5 9.4 93 1011.0 27.3 SE 28.2 0.0 0.0
17:24 10.5 9.4 93 1010.9 18.3 S 28.2 0.0 0.0
17:25 10.5 9.4 93 1010.8 20.6 S 28.2 0.0 0.0
17:26 10.5 9.4 93 1011.0 30.4 S 30.4 0.0 0.0
17:27 10.5 9.4 93 1010.9 18.3 S 30.4 0.0 0.0
17:28 10.5 9.4 93 1010.8 18.3 SE 30.4 0.0 0.0
17:29 10.5 9.4 93 1011.0 25.1 SE 30.4 0.0 0.0
17:30 10.5 9.4 93 1010.9 21.3 S 30.4 0.0 0.0
17:31 10.5 9.4 93 1011.0 19.0 S 30.4 0.0 0.0
17:32 10.5 9.4 93 1010.9 21.3 S 30.4 0.0 0.0
17:33 10.5 9.4 93 1010.9 25.1 SE 30.4 0.0 0.0
17:34 10.5 9.4 93 1010.9 22.1 S 30.4 0.0 0.0
17:35 10.5 9.4 93 1010.9 22.8 S 30.4 0.0 0.0
17:36 10.5 9.4 93 1011.0 19.7 SE 25.1 0.0 0.0
17:38 10.5 9.4 93 1010.9 25.1 S 25.1 0.0 0.0
17:39 10.5 9.4 93 1010.9 23.5 S 25.1 0.0 0.0
17:40 10.5 9.4 93 1010.8 19.0 S 25.1 0.0 0.0
17:41 10.5 9.4 93 1011.1 28.9 SE 28.9 0.0 0.0
17:42 10.5 9.4 93 1010.9 27.3 SE 28.9 0.0 0.0
17:43 10.5 9.4 93 1011.0 25.1 SE 28.9 0.0 0.0
17:44 10.5 9.4 93 1010.8 19.7 SE 28.9 0.0 0.0
17:45 10.5 9.4 93 1010.9 26.6 S 28.9 0.0 0.0
17:46 10.5 9.4 93 1011.0 22.8 S 28.9 0.0 0.0
17:47 10.5 9.4 93 1011.0 20.6 S 28.9 0.0 0.0
17:48 10.5 9.4 93 1010.9 15.9 S 28.9 0.0 0.0
17:49 10.6 9.5 93 1010.8 23.5 S 28.9 0.0 0.0
17:51 10.6 9.5 93 1010.9 22.1 SE 29.8 0.0 0.0
17:52 10.6 9.5 93 1010.9 23.5 S 29.8 0.0 0.0
17:53 10.6 9.5 93 1010.9 23.5 S 29.8 0.0 0.0
17:54 10.6 9.5 93 1010.7 22.8 S 29.8 0.0 0.0
17:55 10.6 9.5 93 1010.7 18.3 S 29.8 0.0 0.0
17:56 10.6 9.5 93 1010.7 24.4 S 29.8 0.0 0.0
17:57 10.6 9.5 93 1010.7 21.3 N 29.8 0.0 0.0
17:59 10.6 9.5 93 1010.6 22.8 W 29.8 0.8 0.1
18:00 10.7 9.6 93 1010.7 19.0 NNW 29.8 0.8 0.1
18:01 10.7 9.6 93 1010.7 19.0 NNW 26.6 0.8 0.1
18:02 10.7 9.6 93 1010.6 28.2 S 28.2 0.8 0.1
18:03 10.6 9.5 93 1010.6 22.1 S 30.4 0.8 0.1
18:04 10.7 9.6 93 1010.5 19.7 WNW 30.4 0.0 0.1
18:05 10.6 9.5 93 1010.6 29.8 NW 30.4 0.0 0.1
18:06 10.7 9.6 93 1010.5 24.4 S 30.4 0.0 0.1
18:07 10.7 9.6 93 1010.6 22.8 W 30.4 0.0 0.1
18:08 10.7 9.6 93 1010.4 26.6 SE 30.4 0.0 0.1
18:09 10.6 9.5 93 1010.6 21.3 S 30.4 0.0 0.1
18:11 10.6 9.5 93 1010.4 26.6 S 30.4 0.0 0.1
18:13 10.6 9.5 93 1010.4 22.1 S 30.4 0.0 0.1
18:14 10.6 9.5 93 1010.4 22.1 SE 29.8 0.0 0.1
18:15 10.6 9.5 93 1010.5 22.1 SE 27.3 0.0 0.1
18:17 10.6 9.5 93 1010.5 23.5 S 27.3 0.0 0.1
18:18 10.6 9.5 93 1010.5 22.8 S 27.3 0.0 0.1
18:20 10.6 9.5 93 1010.5 19.0 SE 27.3 0.0 0.1
18:21 10.6 9.5 93 1010.6 26.6 SE 27.3 0.0 0.1
18:22 10.6 9.5 93 1010.4 23.5 SE 28.9 0.0 0.1
18:23 10.6 9.5 93 1010.5 28.9 SE 28.9 0.0 0.1
18:24 10.6 9.5 93 1010.5 23.5 S 28.9 0.0 0.1
18:26 10.6 9.5 93 1010.5 22.8 SE 28.9 0.0 0.1
18:27 10.6 9.5 93 1010.5 20.6 SE 28.9 0.0 0.1
18:28 10.6 9.5 93 1010.6 25.1 NNW 28.9 0.0 0.1
18:29 10.6 9.5 93 1010.4 26.6 S 28.9 0.0 0.1
18:30 10.6 9.5 93 1010.7 25.1 SE 28.9 0.0 0.1
18:31 10.6 9.5 93 1010.4 26.6 SE 28.9 0.0 0.1
18:32 10.6 9.5 93 1010.5 19.7 S 28.9 0.0 0.1
18:33 10.6 9.5 93 1010.5 22.1 SE 28.9 0.0 0.1
18:34 10.6 9.5 93 1010.5 20.6 SE 26.6 0.0 0.1
18:36 10.6 9.5 93 1010.5 18.3 WNW 26.6 0.0 0.1
18:37 10.6 9.5 93 1010.5 26.6 S 26.6 0.0 0.1
18:38 10.6 9.5 93 1010.4 26.6 S 26.6 0.0 0.1
18:39 10.6 9.5 93 1010.5 27.3 SW 27.3 0.0 0.1
18:40 10.6 9.5 93 1010.4 23.5 SE 27.3 0.0 0.1
18:41 10.6 9.5 93 1010.4 21.3 SE 27.3 0.0 0.1
18:42 10.6 9.5 93 1010.5 22.8 S 27.3 0.0 0.1
18:43 10.6 9.5 93 1010.6 16.8 S 27.3 0.0 0.1
18:44 10.6 9.5 93 1010.6 22.8 SE 27.3 0.0 0.1
18:45 10.6 9.5 93 1010.6 22.1 SE 27.3 0.0 0.1
18:46 10.6 9.5 93 1010.4 25.9 S 27.3 0.0 0.1
18:47 10.6 9.5 93 1010.5 19.0 NNE 27.3 0.0 0.1
18:48 10.6 9.5 93 1010.6 25.1 S 27.3 0.0 0.1
18:50 10.6 9.5 93 1010.5 23.5 NNE 27.3 0.0 0.1
18:51 10.6 9.7 94 1010.6 25.9 NNE 27.3 0.0 0.1
18:52 10.6 9.5 93 1010.5 25.9 SE 27.3 0.0 0.1
18:53 10.6 9.7 94 1010.7 28.9 SE 28.9 0.0 0.1
18:54 10.5 9.4 93 1010.6 25.1 SE 28.9 0.0 0.1
18:55 10.5 9.4 93 1010.6 28.2 SE 28.9 0.0 0.1
18:56 10.5 9.6 94 1010.6 25.1 S 28.9 0.0 0.1
18:57 10.5 9.6 94 1010.6 27.3 SE 28.9 0.0 0.1
18:58 10.5 9.6 94 1010.5 22.8 S 28.9 0.0 0.1
18:59 10.5 9.6 94 1010.6 27.3 S 28.9 0.0 0.1
19:00 10.5 9.6 94 1010.6 27.3 S 28.9 0.0 0.1
19:02 10.5 9.6 94 1010.5 15.9 SE 28.9 0.0 0.1
19:03 10.5 9.6 94 1010.5 21.3 SE 28.9 0.0 0.1
19:04 10.5 9.6 94 1010.4 23.5 SE 28.9 0.0 0.1
19:05 10.5 9.6 94 1010.4 20.6 S 28.2 0.0 0.1
19:06 10.5 9.6 94 1010.6 20.6 S 27.3 0.0 0.1
19:07 10.5 9.6 94 1010.6 23.5 S 27.3 0.0 0.1
19:08 10.5 9.6 94 1010.6 22.8 SE 27.3 0.0 0.1
19:09 10.5 9.6 94 1010.7 22.1 S 27.3 0.0 0.1
19:10 10.5 9.6 94 1010.5 25.9 S 27.3 0.0 0.1
19:11 10.5 9.6 94 1010.6 22.1 S 25.9 0.0 0.1
19:12 10.5 9.6 94 1010.7 33.6 S 33.6 0.0 0.1
19:13 10.5 9.6 94 1010.5 21.3 S 33.6 0.0 0.1
19:14 10.5 9.6 94 1010.6 19.0 S 33.6 0.0 0.1
19:15 10.5 9.6 94 1010.6 20.6 SE 33.6 0.0 0.1
19:16 10.5 9.6 94 1010.4 22.8 SE 33.6 0.0 0.1
19:18 10.5 9.6 94 1010.6 20.6 S 33.6 0.0 0.1
19:19 10.5 9.6 94 1010.7 23.5 SE 33.6 0.0 0.1
19:20 10.5 9.6 94 1010.7 26.6 SE 33.6 0.0 0.1
19:21 10.5 9.6 94 1010.6 20.6 SE 33.6 0.0 0.1
19:22 10.5 9.6 94 1010.6 23.5 SE 26.6 0.0 0.1
19:23 10.5 9.6 94 1010.6 22.1 S 26.6 0.0 0.1
19:25 10.5 9.6 94 1010.8 20.6 SE 26.6 0.0 0.1
19:26 10.5 9.6 94 1010.6 25.9 SE 26.6 0.0 0.1
19:27 10.5 9.6 94 1010.7 21.3 S 26.6 0.0 0.1
19:28 10.5 9.6 94 1010.8 25.1 SE 26.6 0.0 0.1
19:29 10.5 9.6 94 1010.8 22.1 S 26.6 0.0 0.1
19:30 10.5 9.6 94 1010.7 20.6 S 25.9 0.0 0.1
19:32 10.5 9.7 95 1010.7 22.1 WNW 25.9 0.0 0.1
19:33 10.5 9.7 95 1010.7 25.9 SE 25.9 0.0 0.1
19:34 10.5 9.7 95 1010.7 23.5 S 25.9 0.0 0.1
19:35 10.5 9.7 95 1010.6 20.6 S 25.9 0.0 0.1
19:36 10.5 9.7 95 1010.7 25.9 S 25.9 0.0 0.1
19:37 10.5 9.7 95 1010.7 21.3 SE 31.1 0.0 0.1
19:38 10.5 9.7 95 1010.7 22.8 N 31.1 0.0 0.1
19:40 10.5 9.7 95 1010.7 15.2 S 31.1 0.0 0.1
19:41 10.5 9.7 95 1010.6 20.6 SE 31.1 0.0 0.1
19:42 10.4 9.6 95 1010.9 25.1 S 31.1 0.0 0.1
19:43 10.5 9.7 95 1010.9 22.8 SE 31.1 0.0 0.1
19:44 10.5 9.7 95 1010.8 23.5 S 31.1 0.0 0.1
19:45 10.5 9.7 95 1010.9 16.8 S 31.1 0.0 0.1
19:46 10.5 9.7 95 1010.9 20.6 SE 31.1 0.0 0.1
19:47 10.5 9.7 95 1010.8 16.8 S 25.1 0.0 0.1
19:48 10.5 9.7 95 1011.0 22.1 SE 25.1 0.0 0.1
19:49 10.5 9.7 95 1010.7 23.5 SW 25.1 0.0 0.1
19:51 10.4 9.6 95 1010.8 23.5 SE 25.1 0.0 0.1
19:52 10.5 9.7 95 1010.8 22.8 SE 25.1 0.0 0.1
19:53 10.4 9.6 95 1010.8 19.0 SE 23.5 0.0 0.1
19:54 10.5 9.7 95 1010.8 25.1 SE 25.1 0.0 0.1
19:55 10.5 9.7 95 1010.8 25.1 SE 25.1 0.0 0.1
19:56 10.5 9.7 95 1010.8 25.9 SE 25.9 0.0 0.1
19:57 10.5 9.7 95 1010.8 20.6 SE 25.9 0.0 0.1
19:58 10.4 9.6 95 1010.7 21.3 S 25.9 0.0 0.1
19:59 10.4 9.6 95 1010.8 25.1 S 25.9 0.0 0.1
20:00 10.4 9.6 95 1010.7 25.1 S 25.9 0.0 0.1
20:01 10.4 9.6 95 1010.7 18.3 SE 25.9 0.0 0.1
20:02 10.4 9.6 95 1010.9 19.0 SE 25.9 0.0 0.1
20:03 10.5 9.7 95 1011.0 22.1 SE 25.9 0.0 0.1
20:04 10.5 9.7 95 1010.8 15.9 SE 25.9 0.0 0.1
20:05 10.4 9.6 95 1010.8 22.8 SE 25.9 0.0 0.1
20:06 10.4 9.6 95 1011.1 24.4 SE 25.1 0.0 0.1
20:08 10.5 9.7 95 1010.8 22.8 SE 27.3 0.0 0.1
20:09 10.4 9.6 95 1010.8 25.9 S 27.3 0.0 0.1
20:10 10.4 9.6 95 1010.9 28.2 SE 28.2 0.0 0.1
20:11 10.4 9.6 95 1010.8 27.3 S 28.2 0.0 0.1
20:13 10.5 9.7 95 1010.8 25.1 S 28.2 0.0 0.1
20:14 10.4 9.6 95 1011.0 19.7 S 28.2 0.0 0.1
20:15 10.4 9.6 95 1010.9 22.1 SE 28.2 0.0 0.1
20:17 10.4 9.6 95 1010.7 20.6 S 28.2 0.0 0.1
20:19 10.4 9.6 95 1010.8 24.4 S 30.4 0.0 0.1
20:20 10.4 9.6 95 1010.9 21.3 SE 30.4 0.0 0.1
20:22 10.4 9.6 95 1011.0 18.3 S 30.4 0.0 0.1
20:23 10.4 9.8 96 1010.9 22.8 SE 30.4 0.0 0.1
20:24 10.5 9.7 95 1011.0 20.6 SE 30.4 0.0 0.1
20:25 10.4 9.8 96 1010.9 20.6 SE 30.4 0.0 0.1
20:26 10.4 9.6 95 1011.0 28.2 SE 30.4 0.0 0.1
20:27 10.4 9.8 96 1011.0 24.4 SE 30.4 0.0 0.1
20:28 10.4 9.6 95 1011.1 25.1 SE 28.2 0.0 0.1
20:29 10.4 9.6 95 1011.0 24.4 SE 28.2 0.0 0.1
20:30 10.5 9.9 96 1011.1 19.0 W 28.2 0.0 0.1
20:31 10.4 9.8 96 1010.8 28.2 SE 28.2 0.0 0.1
20:33 10.4 9.8 96 1010.9 25.1 SE 28.2 0.0 0.1
20:34 10.4 9.8 96 1010.9 22.8 SE 28.2 0.0 0.1
20:35 10.5 9.9 96 1010.9 23.5 SE 28.2 0.0 0.1
20:36 10.4 9.8 96 1010.8 24.4 SE 28.2 0.0 0.1
20:37 10.4 9.8 96 1011.0 18.3 SE 28.2 0.0 0.1
20:38 10.4 9.8 96 1011.1 22.1 SE 28.2 0.0 0.1
20:40 10.5 9.9 96 1011.0 27.3 SE 28.2 0.0 0.1
20:41 10.4 9.8 96 1010.9 23.5 SE 28.2 0.0 0.1
20:42 10.4 9.8 96 1010.9 25.1 S 27.3 0.0 0.1
20:43 10.5 9.9 96 1011.1 22.1 W 27.3 0.0 0.1
20:44 10.4 9.8 96 1011.0 15.2 SE 27.3 0.0 0.1
20:46 10.4 9.8 96 1011.4 24.4 WNW 27.3 0.0 0.1
20:47 10.5 9.9 96 1011.0 18.3 SE 27.3 0.0 0.1
20:48 10.4 9.8 96 1011.0 18.3 SE 27.3 0.0 0.1
20:49 10.4 9.8 96 1011.1 21.3 SE 27.3 0.0 0.1
20:50 10.4 9.8 96 1011.2 19.7 SE 27.3 0.0 0.1
20:51 10.4 9.8 96 1011.3 18.3 SE 25.1 0.0 0.1
20:52 10.4 9.8 96 1011.2 15.9 SE 24.4 0.0 0.1
20:53 10.4 9.8 96 1011.4 22.1 SE 24.4 0.0 0.1
20:55 10.4 9.8 96 1011.3 19.7 S 24.4 0.0 0.1
20:56 10.4 9.8 96 1011.2 18.3 NW 24.4 0.0 0.1
20:57 10.4 9.8 96 1011.2 17.4 SE 22.1 0.0 0.1
20:58 10.4 9.8 96 1011.3 18.3 S 22.1 0.0 0.1
21:00 10.4 9.8 96 1011.0 16.8 S 22.1 0.0 0.1
21:01 10.4 9.8 96 1011.2 16.8 S 22.1 0.0 0.1
21:02 10.4 9.8 96 1011.1 16.8 S 22.1 0.0 0.1
21:03 10.4 9.8 96 1011.2 16.8 S 20.6 0.0 0.1
21:05 10.4 9.8 96 1011.1 16.8 S 20.6 0.0 0.1
21:06 10.5 9.9 96 1011.1 21.3 SE 21.3 0.0 0.1
21:07 10.5 9.9 96 1011.2 15.2 S 21.3 0.0 0.1
21:09 10.4 9.8 96 1011.5 22.8 SE 22.8 0.0 0.1
21:10 10.5 9.9 96 1011.3 18.3 W 22.8 0.0 0.1
21:11 10.5 9.9 96 1011.4 16.8 SE 22.8 0.0 0.1
21:12 10.4 9.8 96 1011.5 21.3 SE 22.8 0.0 0.1
21:13 10.5 9.9 96 1011.5 22.8 SE 22.8 0.0 0.1
21:14 10.5 9.9 96 1011.2 22.1 WSW 22.8 0.0 0.1
21:15 10.5 9.9 96 1011.4 23.5 S 23.5 0.0 0.1
21:16 10.5 9.9 96 1011.4 14.5 S 23.5 0.0 0.1
21:18 10.5 9.9 96 1011.3 22.1 S 23.5 0.0 0.1
21:19 10.5 9.9 96 1011.5 24.4 S 24.4 0.0 0.1
21:20 10.5 9.9 96 1011.2 18.3 SE 24.4 0.0 0.1
21:21 10.5 9.9 96 1011.1 18.3 SE 24.4 0.0 0.1
21:22 10.5 9.9 96 1011.2 26.6 SE 26.6 0.0 0.1
21:23 10.5 9.9 96 1011.0 24.4 SE 26.6 0.0 0.1
21:24 10.5 9.9 96 1010.9 28.2 SE 28.2 0.0 0.1
21:26 10.5 9.9 96 1010.9 29.8 SE 29.8 0.0 0.1
21:27 10.5 9.9 96 1011.2 22.8 SE 29.8 0.0 0.1
21:28 10.5 9.9 96 1011.1 21.3 E 29.8 0.0 0.1
21:29 10.5 9.9 96 1011.2 27.3 SE 29.8 0.0 0.1
21:30 10.5 9.9 96 1011.2 22.8 SE 29.8 0.0 0.1
21:31 10.5 9.9 96 1011.2 19.7 S 29.8 0.0 0.1
21:32 10.5 9.9 96 1011.2 20.6 SE 29.8 0.0 0.1
21:33 10.5 9.9 96 1011.4 20.6 SE 29.8 0.0 0.1
21:35 10.5 9.9 96 1011.1 27.3 S 34.9 0.0 0.1
21:36 10.5 9.9 96 1011.2 20.6 S 34.9 0.0 0.1
21:37 10.5 9.9 96 1010.9 20.6 SE 34.9 0.0 0.1
21:38 10.5 9.9 96 1011.0 20.6 S 34.9 0.0 0.1
21:39 10.5 9.9 96 1011.0 25.1 SE 34.9 0.0 0.1
21:40 10.5 9.9 96 1011.0 22.8 S 34.9 0.0 0.1
21:41 10.5 9.9 96 1010.9 25.9 SE 34.9 0.0 0.1
21:42 10.5 9.9 96 1010.8 18.3 E 34.9 0.0 0.1
21:44 10.5 9.9 96 1010.7 22.8 SE 34.9 0.0 0.1
21:45 10.5 9.9 96 1010.9 22.8 NNW 26.6 0.0 0.1
21:46 10.5 9.9 96 1010.7 23.5 SE 26.6 0.0 0.1
21:47 10.5 9.9 96 1010.8 21.3 SE 26.6 0.0 0.1
21:48 10.5 9.9 96 1010.8 22.1 SE 26.6 0.0 0.1
21:49 10.5 9.9 96 1011.0 22.8 SE 26.6 0.0 0.1
21:51 10.5 10.0 97 1010.9 15.9 NW 26.6 0.0 0.1
21:52 10.5 9.9 96 1010.8 22.8 SE 26.6 0.0 0.1
21:53 10.5 9.9 96 1010.8 22.8 SE 24.4 0.0 0.1
21:54 10.5 9.9 96 1010.6 22.1 S 24.4 0.0 0.1
21:55 10.5 9.9 96 1010.5 19.0 SSW 24.4 0.0 0.1
21:56 10.5 9.9 96 1010.6 18.3 SE 24.4 0.0 0.1
21:57 10.5 10.0 97 1010.7 16.8 SE 24.4 0.0 0.1
21:59 10.4 9.9 97 1010.7 14.5 SE 24.4 0.0 0.1
22:00 10.4 9.8 96 1010.8 16.8 E 24.4 0.0 0.1
22:01 10.4 9.8 96 1010.7 16.8 E 24.4 0.0 0.1
22:02 10.4 9.8 96 1010.7 16.8 E 24.4 0.0 0.1
22:03 10.4 9.8 96 1010.6 16.8 E 24.4 0.0 0.1
22:04 10.4 9.8 96 1010.8 16.8 E 24.4 0.0 0.1
22:05 10.4 9.8 96 1010.7 16.8 E 19.0 0.0 0.1
22:07 10.4 9.9 97 1010.8 21.3 S 21.3 0.0 0.1
22:08 10.4 9.9 97 1010.8 25.9 SE 25.9 0.0 0.1
22:09 10.4 9.9 97 1010.7 22.1 S 25.9 0.0 0.1
22:10 10.4 9.9 97 1010.8 31.1 SE 31.1 0.0 0.1
22:12 10.4 9.9 97 1010.7 23.5 SE 31.1 0.0 0.1
22:13 10.4 9.9 97 1010.8 24.4 SE 31.1 0.0 0.1
22:15 10.4 9.9 97 1010.9 32.0 S 32.0 0.0 0.1
22:16 10.4 9.9 97 1010.7 22.8 SE 32.0 0.0 0.1
22:18 10.5 10.0 97 1010.8 17.4 SE 32.0 0.0 0.1
22:19 10.5 10.0 97 1010.7 20.6 SE 32.0 0.0 0.1
22:21 10.4 9.9 97 1010.9 28.2 S 32.0 0.0 0.1
22:22 10.4 9.9 97 1011.0 30.4 SE 32.0 0.0 0.1
22:24 10.5 10.0 97 1011.1 16.8 S 32.0 0.0 0.1
22:26 10.5 10.0 97 1011.1 22.8 S 30.4 0.0 0.1
22:27 10.5 10.0 97 1011.0 23.5 SE 30.4 0.0 0.1
22:28 10.5 10.0 97 1010.9 23.5 SE 30.4 0.0 0.1
22:29 10.5 10.0 97 1011.2 23.5 S 30.4 0.0 0.1
22:30 10.5 10.0 97 1010.8 22.8 SW 30.4 0.0 0.1
22:31 10.5 10.0 97 1011.2 23.5 S 30.4 0.0 0.1
22:33 10.5 10.0 97 1010.9 29.8 W 29.8 0.0 0.1
22:34 10.5 10.0 97 1010.9 20.6 SE 29.8 0.0 0.1
22:35 10.5 10.0 97 1010.9 27.3 S 29.8 0.0 0.1
22:36 10.5 10.0 97 1010.8 25.9 SE 29.8 0.0 0.1
22:37 10.5 10.0 97 1011.0 20.6 SE 29.8 0.0 0.1
22:38 10.5 10.0 97 1011.1 22.8 SE 29.8 0.0 0.1
22:39 10.5 10.0 97 1010.9 22.1 WSW 29.8 0.0 0.1
22:40 10.5 10.0 97 1011.1 22.8 S 29.8 0.0 0.1
22:41 10.5 10.0 97 1010.8 24.4 SE 29.8 0.0 0.1
22:43 10.5 10.0 97 1010.9 23.5 WSW 29.8 0.0 0.1
22:44 10.5 10.0 97 1010.8 24.4 SE 27.3 0.0 0.1
22:45 10.5 10.0 97 1010.7 28.9 S 28.9 0.0 0.1
22:46 10.5 10.0 97 1010.9 22.8 SE 28.9 0.0 0.1
22:47 10.5 10.0 97 1010.7 25.1 SE 34.9 0.0 0.1
22:48 10.5 10.0 97 1010.9 24.4 SE 34.9 0.0 0.1
22:49 10.5 10.0 97 1010.8 26.6 SE 34.9 0.0 0.1
22:50 10.5 10.0 97 1010.7 25.9 S 34.9 0.0 0.1
22:52 10.5 10.0 97 1010.8 25.9 S 34.9 0.0 0.1
22:53 10.5 10.0 97 1010.9 21.3 S 34.9 0.0 0.1
22:54 10.5 10.0 97 1011.1 23.5 S 34.9 0.0 0.1
22:55 10.5 10.0 97 1010.8 22.1 S 34.9 0.0 0.1
22:56 10.5 10.0 97 1010.7 25.9 S 34.9 0.0 0.1
22:57 10.5 10.0 97 1010.8 21.3 SE 27.3 0.0 0.1
22:59 10.5 10.0 97 1010.9 25.9 S 27.3 0.0 0.1
23:00 10.5 10.0 97 1010.6 19.7 SE 27.3 0.0 0.1
23:02 10.5 10.0 97 1010.8 23.5 S 25.9 0.0 0.1
23:03 10.5 10.0 97 1010.9 27.3 SE 27.3 0.0 0.1
23:04 10.5 10.0 97 1010.9 24.4 SE 27.3 0.0 0.1
23:05 10.5 10.0 97 1010.9 18.3 S 27.3 0.0 0.1
23:07 10.5 10.0 97 1010.9 26.6 SE 27.3 0.0 0.1
23:08 10.5 10.0 97 1011.0 23.5 SE 27.3 0.0 0.1
23:09 10.5 10.0 97 1011.0 19.7 SE 27.3 0.0 0.1
23:10 10.5 10.0 97 1010.9 19.7 SE 27.3 0.0 0.1
23:11 10.5 10.0 97 1011.0 21.3 S 27.3 0.0 0.1
23:13 10.5 10.0 97 1011.0 20.6 SE 27.3 0.0 0.1
23:14 10.5 10.0 97 1011.0 25.9 SE 27.3 0.0 0.1
23:15 10.6 10.1 97 1011.2 22.8 SE 27.3 0.0 0.1
23:16 10.5 10.0 97 1011.0 23.5 SE 27.3 0.0 0.1
23:17 10.6 10.1 97 1011.1 18.3 SE 27.3 0.0 0.1
23:18 10.5 10.0 97 1011.1 27.3 SE 27.3 0.0 0.1
23:20 10.5 10.0 97 1010.9 25.9 SE 33.6 0.0 0.1
23:21 10.6 10.1 97 1011.0 28.2 SE 33.6 0.0 0.1
23:22 10.6 10.1 97 1010.7 22.8 SE 33.6 0.0 0.1
23:23 10.6 10.1 97 1010.9 19.0 SE 33.6 0.0 0.1
23:25 10.6 10.1 97 1011.0 19.7 S 33.6 0.0 0.1
23:26 10.6 10.1 97 1010.9 26.6 S 33.6 0.0 0.1
23:27 10.6 10.1 97 1011.0 24.4 S 33.6 0.0 0.1
23:28 10.6 10.1 97 1010.7 24.4 SE 33.6 0.0 0.1
23:30 10.6 10.1 97 1010.8 22.1 SE 28.9 0.0 0.1
23:31 10.6 10.1 97 1010.6 22.8 S 28.9 0.0 0.1
23:32 10.6 10.1 97 1010.9 22.8 SE 28.9 0.0 0.1
23:33 10.5 10.0 97 1010.7 25.9 SE 28.9 0.0 0.1
23:34 10.5 10.0 97 1010.8 19.7 S 28.9 0.0 0.1
23:36 10.5 10.0 97 1010.7 21.3 SE 28.9 0.0 0.1
23:37 10.6 10.1 97 1010.8 27.3 S 27.3 0.0 0.1
23:38 10.5 10.0 97 1010.7 28.9 S 28.9 0.0 0.1
23:39 10.6 10.1 97 1010.7 27.3 SE 28.9 0.0 0.1
23:41 10.6 10.1 97 1010.8 22.8 SE 28.9 0.0 0.1
23:42 10.6 10.1 97 1010.6 21.3 SE 28.9 0.0 0.1
23:43 10.6 10.1 97 1010.9 24.4 SE 28.9 0.0 0.1
23:44 10.6 10.1 97 1010.9 20.6 SE 28.9 0.0 0.1
23:45 10.6 10.1 97 1011.0 26.6 SE 28.9 0.0 0.1
23:46 10.6 10.1 97 1010.7 25.1 SE 28.9 0.0 0.1
23:48 10.6 10.1 97 1010.6 19.0 S 27.3 0.0 0.1
23:49 10.6 10.1 97 1010.8 25.9 SE 27.3 0.0 0.1
23:50 10.6 10.1 97 1010.8 22.8 SE 27.3 0.0 0.1
23:51 10.6 10.1 97 1010.7 30.4 SE 30.4 0.0 0.1
23:52 10.6 10.1 97 1010.7 19.7 S 30.4 0.0 0.1
23:53 10.6 10.1 97 1010.5 25.9 S 30.4 0.0 0.1
23:54 10.6 10.1 97 1010.5 22.8 SE 30.4 0.0 0.1
23:55 10.6 10.1 97 1010.5 24.4 SE 30.4 0.0 0.1
23:57 10.6 10.1 97 1010.7 30.4 SE 30.4 0.0 0.1
23:58 10.6 10.1 97 1010.6 25.9 S 30.4 0.0 0.1
23:59 10.6 10.1 97 1010.5 27.3 S 30.4 0.0 0.1

UK - WEATHER STATION TOPSITES - UK World Weather Websites

This is a private weather station, never base important decisions or events on data from this weather station. Although every effort has been made to make the data as accurate as possible it does not meet MetOffice standards. It is proved as a guide of local weather conditions. We accept no liability for any loss which may arise from use of the data.

Copyright © Carnkie Weather 2009 - 2018.